GFSMW_prec_cthk_057.txt.gz
RH
42 44 36 25 28 32 37 51 57 76 85 88 94 98 97 98 96 89 83 86 84 83 78 81 80 73 75 76 77 74 73 72 69 68 60 59 51 49 48 47 43 45 54
40 45 38 28 26 30 32 42 52 61 81 92 90 95 95 96 92 88 87 87 86 85 84 82 82 81 80 84 83 80 80 78 74 68 66 67 60 49 48 48 46 56 58
42 42 39 36 26 27 29 33 44 59 70 89 93 93 95 97 94 92 90 90 90 88 83 85 89 84 85 88 86 84 82 80 78 74 75 73 68 68 54 53 54 58 65
40 43 44 40 30 25 26 29 36 49 60 74 90 91 91 94 92 92 91 90 88 85 87 88 89 88 85 85 86 82 81 82 83 73 70 67 68 79 82 69 63 66 70
36 40 47 42 36 28 24 26 29 39 50 62 68 79 84 84 88 89 90 91 89 86 89 91 86 84 83 82 83 81 78 76 76 79 75 63 58 58 58 67 79 77 76
35 38 43 46 40 31 27 24 27 31 40 49 54 61 67 73 77 79 85 92 89 91 91 92 84 79 82 82 80 81 77 74 75 76 76 78 78 73 72 72 70 73 76
34 36 42 46 43 36 29 26 28 30 35 41 49 53 56 61 65 70 71 72 70 74 78 78 80 76 77 78 81 82 85 84 78 81 77 75 79 81 77 78 76 74 70
32 33 38 46 45 44 35 29 27 29 31 36 42 49 54 55 57 58 59 59 59 59 64 69 70 68 69 70 71 76 84 77 79 82 81 79 71 70 77 75 76 71 67
35 32 35 42 45 46 42 32 27 27 30 32 38 42 45 47 49 51 52 50 51 52 53 56 58 60 60 60 63 64 68 68 66 68 70 61 56 59 65 68 72 69 72
47 39 35 39 44 46 46 38 33 29 28 31 34 37 41 46 47 49 49 50 51 51 52 52 55 57 59 66 67 64 63 63 60 62 61 60 60 65 72 73 72 77 82
44 43 37 39 45 48 48 44 37 34 32 30 33 34 39 44 49 52 53 54 56 55 60 63 65 66 66 69 74 74 74 73 73 73 72 67 68 69 76 77 80 84 87
43 40 41 41 44 50 55 52 45 40 38 35 33 33 34 37 40 45 50 53 56 60 61 63 61 59 60 62 65 69 72 72 74 78 81 80 79 80 76 75 76 86 92
46 43 42 45 46 48 52 52 50 49 45 40 38 36 35 36 38 40 43 46 50 55 58 61 58 57 56 57 59 60 65 74 77 77 78 86 86 83 75 77 86 91 84
48 45 45 47 50 49 49 53 54 52 48 47 45 43 41 39 40 43 45 47 51 55 55 56 53 53 52 50 52 57 59 66 74 76 81 79 93 88 81 86 90 88 83
50 50 49 50 49 50 52 51 51 53 49 50 50 45 46 50 56 55 55 54 56 55 53 53 50 49 50 48 49 51 55 59 67 75 83 83 84 81 89 94 90 86 91
42 53 54 51 50 47 46 53 53 54 56 54 51 53 55 55 54 55 54 58 59 57 56 50 50 50 46 43 45 52 55 59 63 74 88 92 95 93 96 97 93 89 91
38 41 49 53 53 54 52 49 52 55 54 54 53 57 57 54 52 51 52 54 54 55 52 53 55 54 53 50 45 49 57 63 69 74 83 90 93 97 96 97 97 96 96
37 34 39 47 53 54 54 52 49 51 53 54 54 55 57 56 55 55 53 56 53 51 55 58 59 59 60 59 55 58 63 68 71 75 82 88 91 93 96 95 97 97 93
40 40 36 36 38 45 51 51 53 49 53 55 57 55 55 58 58 54 54 56 57 56 61 65 65 65 64 64 66 67 64 64 69 74 75 81 85 88 89 93 95 94 88
39 36 38 40 42 43 44 45 46 51 50 54 55 57 58 57 57 57 62 61 61 60 60 61 64 68 71 71 71 76 81 78 70 71 75 79 80 81 84 84 86 88 88
32 35 35 39 46 48 52 50 51 51 53 55 57 59 63 64 63 66 68 64 62 63 64 66 70 71 71 74 80 83 85 83 83 82 83 81 81 84 86 89 90 91 91
35 34 36 38 40 48 52 51 55 55 53 57 59 59 61 64 63 64 67 77 79 76 77 77 80 84 85 76 81 87 91 90 90 85 83 82 83 85 88 94 96 98 94
39 41 41 44 45 49 56 60 60 61 65 68 67 63 62 66 71 75 77 79 80 82 83 88 91 86 94 94 89 93 94 92 89 86 86 84 89 92 94 97 97 98 92
43 45 43 49 55 54 59 63 66 67 68 71 73 71 70 72 76 76 78 82 84 89 95 94 96 93 95 93 89 96 98 96 92 91 89 93 98 97 97 97 96 95 96
48 51 51 53 60 66 67 69 73 72 74 75 77 80 79 80 84 85 89 92 92 93 98 99 98 96 99 97 98 99 98 98 98 94 95 97 97 97 97 96 95 96 96
50 54 53 57 70 82 87 83 87 83 80 78 80 81 85 91 93 87 89 94 96 97 99 98 99 98 98 98 98 97 97 97 97 97 97 96 95 95 95 96 96 96 96

GFSMW_prec_cthk_060.txt.gz
RH
47 42 43 38 29 27 30 35 43 51 63 74 78 84 89 94 95 95 91 96 87 87 90 90 87 79 78 72 72 69 71 71 70 71 70 60 57 53 49 49 48 47 46
49 41 41 37 29 25 28 31 38 45 52 71 80 83 90 95 97 97 91 89 82 89 87 90 79 81 78 73 73 75 76 73 72 71 70 63 57 56 53 50 46 44 48
48 40 41 41 33 26 26 29 34 41 52 70 84 87 88 92 94 95 90 86 89 88 88 84 77 78 76 79 82 79 76 75 74 73 69 69 67 66 65 61 53 53 53
46 42 39 44 38 26 24 26 31 37 49 61 78 86 86 88 90 90 88 89 88 87 87 85 82 79 78 80 86 85 81 80 77 76 73 72 73 81 88 75 68 62 58
38 44 38 43 46 32 22 23 29 33 40 50 63 71 77 82 82 85 88 88 89 86 85 86 84 81 81 83 93 87 82 80 80 83 77 72 69 69 73 78 86 83 70
37 43 40 41 45 44 26 23 26 31 35 42 51 59 64 69 77 77 82 87 86 86 84 84 85 87 84 83 88 84 78 75 73 80 85 78 72 66 63 63 68 69 72
39 42 43 39 42 46 38 28 28 30 34 39 46 54 60 60 65 70 75 78 82 77 75 73 76 77 81 87 84 81 76 76 79 81 86 80 77 79 84 85 81 77 79
42 41 41 38 42 46 45 37 32 29 32 35 40 46 53 58 59 62 63 62 65 71 69 67 68 73 81 81 79 75 72 75 76 81 92 87 83 81 81 79 81 77 77
37 39 39 38 40 45 47 44 36 31 29 31 35 40 45 48 51 56 57 57 57 59 64 61 62 68 73 75 67 62 65 68 72 74 77 78 80 81 81 79 70 66 66
45 48 49 44 39 42 47 48 44 36 33 32 33 36 39 43 44 48 49 51 54 56 57 55 59 65 71 70 63 65 70 68 70 77 78 74 72 75 74 69 66 70 79
46 51 56 50 41 41 44 47 48 43 39 34 34 34 36 40 44 45 46 48 50 51 54 55 58 63 73 73 69 68 71 72 73 76 76 76 76 78 79 79 78 76 77
53 52 45 45 52 46 47 50 51 50 46 40 38 36 33 37 38 42 44 47 49 51 53 57 60 61 59 60 60 62 64 65 68 71 75 78 80 80 84 86 88 89 85
57 53 52 54 50 53 53 53 53 54 52 48 42 37 35 33 32 34 38 42 45 47 50 52 53 57 56 55 54 55 55 57 60 61 63 70 78 81 83 83 87 93 93
53 52 49 49 51 58 55 54 55 55 59 57 51 43 39 34 33 36 39 41 42 43 47 50 55 57 57 57 55 54 52 52 53 56 58 59 67 77 83 89 88 95 95
53 56 55 53 54 49 47 57 57 54 56 60 59 49 50 48 46 45 44 45 48 49 51 51 53 55 55 54 53 53 55 54 54 55 55 57 63 68 75 88 87 92 88
57 55 52 50 54 53 52 51 54 62 56 54 55 57 59 58 57 55 54 57 56 54 53 52 54 55 53 50 48 52 54 54 54 54 57 60 63 66 72 82 89 93 98
43 43 43 45 50 52 55 55 55 53 57 61 54 57 59 60 59 60 63 61 59 60 58 57 57 57 56 53 55 60 63 64 61 59 58 62 64 70 77 85 90 94 96
39 38 37 36 40 45 47 50 53 56 55 57 59 58 59 59 59 62 64 64 60 60 61 61 59 61 56 57 60 65 67 68 69 70 68 67 63 67 76 82 83 84 89
37 33 32 30 32 32 35 42 49 54 56 56 55 59 60 61 64 64 63 67 69 66 64 63 66 63 61 61 67 71 73 74 74 74 76 78 79 77 75 77 79 78 82
34 30 28 29 30 30 32 33 38 47 50 52 50 52 54 60 61 65 66 68 69 69 67 66 63 64 66 67 68 70 72 75 79 79 79 81 85 86 87 87 87 89 89
33 27 26 26 27 28 32 35 38 39 44 50 51 52 52 55 59 65 69 72 72 71 71 71 70 69 70 73 75 77 81 82 83 85 85 87 89 94 98 94 96 96 89
34 33 32 31 29 27 27 30 35 40 44 50 56 58 57 56 61 65 67 70 76 79 80 81 82 82 82 82 84 85 87 89 91 90 95 97 94 95 95 98 91 96 98
38 39 38 37 36 33 31 31 36 36 45 49 54 59 66 68 71 72 75 78 80 86 90 91 91 91 92 89 94 91 92 94 95 98 98 98 99 97 98 97 97 96 95
48 46 45 43 43 41 37 37 40 46 47 50 52 61 67 72 79 82 82 85 86 89 92 96 97 98 97 98 95 96 99 97 99 98 99 96 97 98 98 98 97 96 96
53 51 49 46 46 45 42 42 44 52 58 60 58 60 70 79 84 86 91 90 93 96 94 91 98 97 94 95 98 94 98 98 98 98 96 94 97 97 96 97 96 97 96
53 51 49 48 50 50 49 49 52 58 70 79 78 70 72 80 86 89 90 94 94 95 98 97 98 97 94 96 98 95 97 97 96 97 97 96 96 96 96 96 95 95 95

GFSMW_prec_cthk_063.txt.gz
RH
42 40 37 31 31 25 23 27 33 43 55 67 83 86 86 87 89 92 94 92 90 87 91 85 82 86 89 77 71 74 73 70 67 67 68 65 58 57 56 50 44 44 44
43 40 36 34 33 27 23 25 29 36 46 57 72 81 84 87 93 96 97 94 95 91 90 87 91 91 93 93 85 74 76 78 73 73 76 72 68 61 54 52 52 50 51
41 40 39 35 36 30 22 23 26 33 40 55 73 78 81 87 91 96 98 97 92 90 90 90 95 94 93 95 91 74 77 78 84 82 81 75 69 62 58 54 52 55 55
38 39 36 38 36 33 22 21 24 30 36 48 65 70 74 82 85 91 96 93 90 93 91 94 95 95 94 87 82 75 73 83 82 81 78 74 70 68 65 65 67 65 62
36 37 35 38 35 37 27 20 24 27 33 40 50 62 67 76 80 84 90 94 92 86 91 92 90 88 80 77 73 73 78 85 80 79 77 74 72 72 71 77 81 78 79
35 36 35 38 37 37 37 23 23 28 32 36 42 47 55 60 69 75 82 86 84 84 84 87 84 80 76 77 75 75 80 85 81 80 75 74 72 71 69 70 69 67 67
37 38 39 37 37 36 41 29 28 28 31 36 41 46 49 54 59 64 70 75 84 83 81 82 80 82 79 77 78 80 81 86 86 79 76 79 81 81 79 76 75 76 76
39 41 44 38 31 36 42 38 34 29 29 32 37 43 48 51 53 54 57 61 66 67 69 70 72 73 73 73 74 79 83 83 86 78 80 80 84 85 85 83 82 82 83
43 44 41 42 31 33 39 42 39 34 30 30 34 39 43 46 48 51 52 53 55 58 60 62 63 65 66 72 76 79 82 79 81 77 73 75 81 80 83 85 83 83 84
44 43 47 48 44 33 35 42 44 41 32 34 33 35 39 42 46 46 46 48 49 50 54 56 57 59 60 61 65 69 71 72 77 72 69 70 73 75 78 82 84 83 84
50 53 57 53 51 43 36 41 47 49 43 35 36 37 36 39 42 46 47 48 49 49 48 49 52 54 56 59 64 65 68 72 76 74 73 72 74 77 79 81 84 84 85
52 53 56 64 61 50 45 44 48 49 51 47 38 37 39 39 41 41 45 48 49 50 52 53 54 58 60 60 60 60 64 68 70 67 68 67 70 73 76 79 82 85 85
57 55 57 57 62 69 67 52 51 52 54 55 53 43 42 39 40 41 41 45 47 48 50 51 50 52 53 56 58 57 58 59 59 58 57 55 59 59 59 62 72 79 83
61 61 59 59 61 63 69 75 74 64 59 57 58 57 51 44 41 40 41 43 45 45 45 47 47 49 52 55 57 56 55 54 52 52 52 52 53 52 55 59 60 66 73
59 62 63 63 59 60 62 66 66 65 71 70 63 59 62 58 55 48 42 43 48 48 50 52 51 53 53 52 54 54 56 57 55 53 50 51 53 53 56 61 62 67 71
62 61 60 59 59 62 59 61 64 64 63 71 71 67 59 59 56 60 61 59 54 50 56 55 57 58 53 51 56 59 59 59 56 53 56 57 59 57 62 67 69 69 71
63 59 53 50 50 50 50 49 54 59 63 65 65 71 73 71 61 59 62 64 66 67 65 63 64 63 64 61 61 63 70 67 62 64 68 68 67 69 72 74 74 76 74
54 49 44 37 32 30 31 34 39 44 54 59 61 58 65 72 73 66 64 63 62 66 67 69 70 71 67 66 67 72 74 73 69 70 72 72 72 78 81 82 83 81 82
46 40 37 34 30 26 25 25 30 37 39 41 47 54 56 60 69 74 71 66 67 65 67 71 76 75 72 74 72 76 82 84 81 77 78 79 81 83 86 91 87 88 87
52 50 41 33 26 25 26 25 24 25 26 33 38 43 45 50 55 56 61 66 68 67 71 73 73 72 75 70 73 80 84 84 80 81 84 85 85 85 89 93 92 92 91
50 35 30 28 27 27 26 26 25 25 26 28 29 35 41 46 48 49 51 58 64 68 72 77 78 81 80 78 80 83 86 87 86 88 86 85 86 89 91 94 95 94 95
32 27 27 28 29 28 27 26 26 25 25 25 28 31 33 38 41 45 50 56 63 70 73 76 80 86 87 87 88 91 93 94 96 92 90 91 92 93 94 96 96 97 97
35 37 36 35 34 32 29 28 28 26 26 26 28 29 33 34 39 41 48 55 66 74 80 87 89 89 89 91 92 92 97 96 96 97 92 92 96 98 95 95 98 96 96
43 42 40 38 36 34 33 33 32 32 32 32 32 35 35 36 41 46 49 57 64 72 85 91 93 94 92 94 92 92 90 95 99 98 96 99 96 95 96 96 96 98 97
47 46 44 41 39 38 38 38 39 39 40 39 38 40 43 44 51 60 61 61 65 73 81 89 94 99 87 98 92 90 94 98 98 96 97 96 96 97 94 96 96 96 97
51 50 49 48 47 45 45 45 45 47 47 47 48 50 53 54 59 73 86 80 75 75 81 88 91 93 91 96 96 87 98 97 94 97 97 97 95 95 96 99 94 95 96

GFSMW_prec_cthk_066.txt.gz
RH
40 41 43 39 40 35 30 21 26 32 42 55 66 85 86 89 91 91 90 90 89 90 90 87 83 76 76 68 64 60 61 64 70 73 75 70 67 62 60 56 54 52 51
40 40 42 39 41 38 32 21 22 31 40 50 67 78 85 90 95 95 95 93 93 94 92 91 86 82 78 72 71 68 67 72 76 72 74 77 71 63 59 56 53 52 49
37 38 40 38 40 38 32 20 19 27 36 50 70 81 85 88 91 95 96 96 97 95 94 92 86 83 85 79 80 78 73 77 79 76 78 78 75 73 68 60 54 51 50
35 39 43 37 40 37 37 20 18 26 33 42 66 73 78 82 84 88 95 99 99 97 95 93 91 90 90 90 89 82 73 76 79 82 82 83 85 76 67 64 60 57 55
35 39 41 39 39 42 38 27 17 24 31 36 45 62 67 74 82 89 95 98 97 96 96 95 97 95 94 94 95 92 86 75 77 82 83 87 87 78 72 70 66 65 68
36 39 42 41 40 41 42 36 19 25 29 35 40 44 52 64 74 83 92 94 97 97 98 97 96 97 95 94 96 92 90 79 82 80 86 84 80 77 75 73 71 74 78
37 40 43 42 42 37 39 41 29 24 27 31 40 44 45 49 54 64 75 86 93 94 94 96 97 96 97 93 93 92 88 82 75 76 81 78 79 76 73 73 73 70 69
37 39 42 42 45 38 38 43 36 30 25 29 33 40 44 47 49 52 61 72 78 84 88 90 93 96 92 90 90 88 82 75 77 81 82 78 77 77 80 81 83 85 82
38 41 44 49 48 38 35 41 41 35 29 25 29 35 42 45 47 51 53 60 68 71 71 72 72 76 77 75 74 73 72 73 75 80 82 81 83 81 82 87 84 83 76
46 47 47 48 47 42 40 42 45 45 39 30 28 31 37 44 48 50 51 52 55 60 61 60 60 62 63 65 66 69 71 67 72 76 76 76 77 78 79 79 79 78 76
51 51 51 54 55 51 46 47 48 50 51 44 32 33 36 38 44 48 49 49 51 52 53 55 57 57 57 59 60 61 62 62 68 69 71 72 74 76 77 78 80 81 81
53 54 58 60 63 62 59 57 59 55 54 54 49 37 36 39 39 40 46 49 49 50 51 51 51 54 56 60 62 63 63 64 64 68 71 71 77 77 77 75 75 75 76
64 65 65 67 70 69 68 70 67 65 66 64 63 57 48 40 39 39 40 43 48 50 51 52 53 54 57 59 60 60 61 61 60 61 61 59 66 62 63 64 61 61 63
71 70 67 68 69 69 69 72 80 77 69 66 66 64 61 60 55 46 39 37 41 45 48 51 52 53 54 54 54 57 59 62 60 59 57 56 58 57 61 64 63 63 64
70 70 70 68 70 71 70 68 65 65 71 74 69 69 72 72 72 68 63 55 44 41 45 47 48 51 53 52 55 57 58 59 60 61 59 57 54 55 56 62 62 64 64
71 71 71 66 61 61 64 62 62 63 62 65 67 72 73 77 78 79 77 73 68 65 55 50 49 51 50 51 56 59 59 61 63 61 61 64 62 59 59 64 70 74 75
74 71 67 62 62 58 57 55 57 58 59 59 59 62 67 70 74 76 80 75 72 74 72 71 69 65 58 53 55 59 62 63 64 63 65 68 65 64 66 73 79 81 79
69 72 66 62 59 52 48 47 44 44 47 46 51 56 55 60 67 70 69 70 70 72 71 70 71 71 69 68 68 70 70 69 67 68 69 71 73 71 70 75 79 81 80
70 62 53 52 48 42 37 34 31 28 28 30 34 37 41 48 51 54 58 61 66 67 68 67 71 74 72 71 75 77 83 82 81 80 76 75 78 81 80 83 87 89 90
68 62 53 50 46 35 29 26 26 24 21 21 23 25 28 31 33 41 45 46 52 59 66 67 70 73 73 76 79 81 87 86 86 85 83 80 83 89 92 88 90 92 94
64 56 53 50 44 35 32 30 28 24 22 21 22 22 23 24 26 27 30 36 41 41 46 60 68 71 73 76 77 80 85 86 87 90 89 89 90 93 94 93 92 94 98
49 45 44 42 41 34 29 25 25 24 24 24 24 23 24 25 26 28 28 29 33 39 44 47 51 59 69 75 77 81 89 89 95 92 90 89 86 86 90 97 96 97 96
50 45 41 37 33 31 29 28 27 27 27 27 27 27 26 26 27 28 29 31 34 36 40 45 49 55 58 62 70 81 88 91 95 98 94 97 83 91 84 91 97 99 99
58 48 41 38 36 34 33 32 32 32 31 30 30 31 31 30 31 33 34 35 40 42 45 51 56 64 66 74 76 80 82 88 94 92 99 87 98 95 87 88 95 94 95
58 53 43 39 38 39 38 37 36 35 34 35 35 36 36 35 36 37 40 43 45 49 56 60 65 73 74 79 75 87 81 98 95 94 97 97 98 86 97 97 95 96 98
60 54 46 42 42 41 40 41 40 40 40 41 41 41 42 43 44 46 47 51 54 56 59 68 74 79 87 88 88 82 98 78 95 91 85 96 96 95 97 96 97 96 94

GFSMW_prec_cthk_072.txt.gz
RH
35 39 40 42 47 47 51 42 37 24 24 25 32 43 60 73 86 91 95 98 99 98 98 90 85 65 59 69 69 71 71 68 70 63 71 63 76 77 68 58 54 49 49
36 39 39 40 47 46 45 45 36 23 23 26 31 50 66 80 87 92 94 95 98 98 97 91 84 71 72 71 75 77 81 77 77 76 71 69 73 74 79 74 65 57 60
35 40 37 39 46 45 44 45 37 25 21 26 31 56 64 76 85 89 93 97 94 94 93 95 93 83 79 77 77 80 84 79 82 72 66 65 69 72 82 84 76 71 68
40 39 37 41 46 46 43 45 39 30 19 26 29 51 58 75 81 85 90 93 96 97 98 97 95 94 85 81 75 75 74 75 69 69 66 64 69 69 75 76 77 72 71
41 36 35 39 48 50 44 46 43 32 18 27 30 40 57 65 72 79 87 92 95 96 97 98 96 96 94 87 76 80 68 77 74 68 63 63 70 73 78 73 75 71 71
41 38 39 41 47 50 45 47 47 37 21 25 31 37 46 54 61 69 78 86 92 97 95 94 99 97 95 90 83 79 79 82 78 72 69 70 73 76 82 78 81 81 75
42 37 38 40 44 47 48 46 48 45 27 23 31 36 44 49 53 59 65 71 86 92 95 97 97 96 97 96 86 89 88 87 87 85 83 79 77 83 82 81 85 88 81
41 36 35 37 39 49 50 49 46 47 35 26 30 34 40 45 49 51 56 65 75 89 94 96 97 97 97 97 95 90 93 93 91 88 91 91 85 85 83 86 90 87 83
42 38 39 40 40 49 53 58 47 48 40 31 28 32 37 42 46 48 51 60 68 80 90 94 99 96 98 98 97 96 94 94 93 95 94 94 91 90 90 86 87 86 85
49 45 46 47 50 56 61 63 56 50 47 39 30 30 35 40 43 46 49 53 61 70 73 80 89 94 97 98 98 97 95 96 95 95 97 96 95 94 93 90 88 85 82
60 58 56 54 53 60 67 65 60 58 55 53 45 37 33 36 41 45 48 48 50 54 60 65 69 74 77 82 87 91 90 89 87 89 90 92 92 94 92 87 84 80 80
67 66 64 60 60 65 73 69 66 66 65 62 61 55 48 39 36 41 46 49 50 51 53 54 54 57 63 67 66 69 72 74 76 78 79 79 81 77 78 79 75 72 76
72 70 68 66 66 70 73 73 73 71 69 68 69 68 64 56 50 44 42 45 48 50 53 54 55 57 57 57 59 60 62 63 64 66 67 68 70 66 69 71 72 72 74
79 77 76 74 74 75 77 78 79 78 79 80 80 75 73 72 68 63 58 55 50 49 49 52 55 55 57 59 61 61 61 62 63 64 63 65 66 64 68 68 69 70 72
80 81 83 82 83 86 88 88 89 89 86 83 79 79 80 78 78 77 77 76 75 69 64 60 56 54 54 57 60 62 61 60 60 61 61 63 64 65 65 67 66 68 68
73 74 74 78 84 87 88 87 90 92 88 85 80 77 78 80 79 77 77 78 81 85 83 84 85 82 73 65 61 60 61 63 65 64 62 63 64 64 64 66 69 72 74
86 78 75 72 75 72 72 71 71 72 71 73 72 70 67 69 72 73 74 74 74 76 78 80 83 84 87 87 88 86 84 81 78 72 67 63 63 65 66 68 72 75 78
95 95 93 86 79 71 68 64 63 62 60 58 56 55 53 52 54 57 58 57 56 60 67 72 74 76 78 78 81 83 85 87 85 86 87 88 86 84 84 83 79 76 78
95 92 86 87 84 78 72 67 63 57 54 52 48 46 42 39 38 36 36 35 36 38 43 45 49 54 58 60 67 73 78 80 82 88 93 94 92 93 92 95 94 93 97
95 88 80 76 71 65 63 62 58 54 49 43 40 38 34 33 30 27 26 27 26 31 32 33 32 32 34 36 39 44 51 60 68 78 80 84 83 87 94 96 97 98 98
93 87 80 78 73 67 61 57 55 52 51 49 46 41 37 34 31 30 30 31 32 32 31 30 27 26 26 28 27 27 31 35 43 53 62 66 69 77 90 97 96 97 97
85 80 72 68 67 64 60 55 48 45 45 43 39 37 35 33 32 32 31 29 28 28 28 29 29 30 31 30 28 28 30 32 37 41 44 47 50 55 64 74 78 85 96
84 76 74 70 65 59 56 53 49 43 38 37 35 34 32 31 30 30 29 28 28 28 29 29 30 31 32 31 31 32 34 35 37 42 44 49 50 52 55 57 62 74 78
87 83 75 68 66 63 58 54 50 43 38 35 35 35 34 34 33 32 31 31 31 31 32 32 33 34 34 34 34 36 37 40 43 46 49 48 53 55 56 60 65 66 67
81 74 70 65 62 62 61 58 58 56 52 50 49 44 41 40 40 39 39 38 39 39 38 38 39 39 40 41 43 43 44 45 47 51 58 61 63 63 65 65 73 77 76
76 72 69 63 58 56 54 53 53 53 52 48 49 48 47 48 48 47 46 46 45 45 45 46 47 49 50 51 52 53 55 58 61 63 63 66 73 77 81 83 81 80 86

GFSMW_prec_cthk_075.txt.gz
RH
31 32 33 40 46 46 43 46 49 47 39 26 28 32 43 58 71 82 91 93 97 99 99 97 99 98 95 78 66 67 67 69 65 65 66 70 79 79 77 62 51 48 47
30 29 32 39 44 46 43 42 46 48 38 23 28 34 58 72 81 88 92 91 96 98 98 98 99 95 91 76 67 69 66 66 64 69 73 74 76 74 73 74 58 51 48
25 25 33 39 42 45 43 38 46 46 39 25 29 38 61 68 81 88 92 91 95 99 99 98 97 94 88 68 66 71 76 73 70 70 71 72 71 68 68 77 77 69 62
23 28 35 39 42 43 43 43 46 45 40 26 29 38 60 65 81 86 92 97 95 94 99 99 95 92 81 65 66 73 77 79 83 85 77 76 75 72 70 73 72 75 76
27 33 39 43 46 47 45 44 48 46 39 27 29 38 51 64 70 77 87 92 96 96 94 92 91 91 83 74 72 70 78 83 84 81 83 79 66 63 61 66 69 75 77
32 40 43 42 42 46 46 47 49 52 43 29 30 36 46 55 63 69 76 87 92 97 97 96 95 93 89 82 78 79 78 78 81 82 81 74 67 64 62 64 67 72 76
39 44 47 42 41 43 46 49 49 56 50 32 30 35 44 51 57 60 64 73 79 90 96 98 97 96 97 95 88 87 85 75 80 76 78 80 79 76 71 75 76 78 79
46 47 47 45 43 43 47 50 53 55 51 36 30 34 41 47 52 56 60 63 66 83 92 96 97 99 98 96 97 90 85 84 81 77 84 84 86 82 85 80 86 80 80
49 51 50 48 45 47 52 55 56 61 50 37 32 33 37 42 47 50 53 56 63 69 86 94 94 96 97 97 98 96 88 87 87 88 92 88 88 87 88 87 92 89 85
55 51 55 51 49 50 52 58 61 66 52 40 35 34 36 41 43 45 47 53 59 64 69 83 94 96 97 98 98 98 94 88 91 92 90 90 92 93 91 91 91 93 91
67 64 59 55 54 53 54 61 66 65 60 51 40 37 34 39 43 44 45 47 53 59 63 67 72 80 91 91 94 97 97 93 89 90 90 88 90 89 86 89 94 93 96
73 71 66 64 62 62 62 65 69 66 63 62 57 49 43 40 41 44 46 49 50 50 54 55 56 58 63 67 69 69 72 76 79 83 83 82 86 85 87 90 91 90 93
78 76 72 68 68 68 69 68 69 71 72 70 70 68 61 53 47 44 46 50 52 52 52 53 53 53 52 54 55 58 60 63 68 71 73 75 76 76 78 77 75 79 78
84 79 78 81 75 75 74 76 74 77 79 76 75 73 74 74 69 61 55 51 51 54 55 55 56 57 57 58 59 59 60 61 63 64 65 66 67 69 71 71 71 71 73
87 84 82 82 84 84 83 83 80 81 84 83 84 84 84 82 79 77 75 74 72 68 65 64 60 58 57 58 58 58 60 63 64 65 66 65 64 64 66 70 69 71 73
92 90 88 84 86 90 92 89 89 86 87 88 87 88 85 82 82 83 80 78 80 80 82 83 83 84 84 78 79 77 71 63 59 57 59 59 61 61 65 69 72 75 78
84 79 79 79 81 83 84 86 85 87 90 87 87 85 81 77 77 77 77 78 77 78 77 77 78 79 79 81 82 82 84 85 85 85 82 77 76 76 74 71 71 71 72
94 95 85 77 79 78 76 76 74 74 75 71 65 65 65 63 62 62 60 60 62 63 64 64 66 67 70 73 76 78 81 84 86 88 89 86 85 87 88 87 88 87 90
99 97 95 95 89 81 79 76 72 63 60 58 59 57 56 53 50 48 47 47 46 46 46 46 46 46 48 49 50 52 56 59 64 69 73 73 76 81 85 86 88 94 99
98 96 93 90 84 82 82 78 71 66 63 62 59 56 53 47 44 43 42 42 39 38 36 35 35 35 35 36 35 32 31 33 35 37 40 44 50 54 60 67 74 84 89
97 96 94 92 91 87 79 69 66 63 61 55 54 53 52 49 46 43 39 38 40 40 39 38 35 34 33 31 29 28 28 29 30 31 32 33 35 38 42 45 49 58 65
97 89 84 79 77 74 76 75 72 66 59 56 55 54 51 50 47 46 45 45 44 41 38 37 36 34 32 31 29 29 29 29 30 31 33 35 36 39 41 40 46 52 53
94 86 79 81 76 73 69 68 66 65 61 57 52 48 43 42 41 39 37 33 32 31 31 31 31 31 30 29 29 29 29 30 31 32 33 34 35 38 41 44 48 51 52
93 87 85 78 73 71 68 66 65 63 59 56 54 50 48 45 42 39 38 37 36 36 35 34 35 35 34 34 34 34 34 34 35 35 36 37 37 38 41 44 49 53 58
93 86 80 75 70 67 64 64 63 61 58 57 55 52 52 49 47 47 45 42 41 41 41 41 40 39 39 41 41 40 41 41 42 44 44 45 47 48 50 51 52 55 59
85 77 72 69 67 64 59 58 56 55 53 51 48 47 47 47 46 46 46 46 46 46 46 46 46 46 47 48 49 49 50 51 52 53 54 55 56 58 60 63 66 68 69

GFSMW_prec_cthk_078.txt.gz
RH
26 31 34 36 38 47 50 48 47 50 53 47 32 25 29 33 50 60 69 76 89 99 96 98 93 98 97 96 94 91 86 80 68 66 69 66 67 67 65 66 63 68 51
23 29 32 35 39 45 49 49 50 50 50 49 31 24 26 43 62 72 80 89 95 95 98 95 99 99 98 97 94 88 79 78 70 69 69 66 68 67 64 73 76 70 56
23 28 31 33 38 44 46 51 51 48 49 48 33 23 28 52 61 74 87 90 93 93 97 99 98 99 98 98 93 79 73 71 77 73 68 69 67 70 73 74 70 65 58
26 25 31 29 34 43 49 54 55 48 51 49 33 22 31 51 61 76 82 88 91 93 98 97 98 98 98 98 91 74 73 73 70 70 74 77 74 75 74 70 68 67 73
30 28 23 25 30 44 50 55 54 48 52 47 34 27 33 48 56 64 75 88 92 94 98 98 98 98 97 95 89 76 74 75 77 75 76 76 77 74 75 72 69 70 66
34 27 23 27 39 46 52 54 54 50 53 47 33 26 34 46 54 59 65 80 90 96 97 99 98 97 95 94 84 71 69 77 79 80 87 86 89 88 81 81 79 67 63
38 30 30 36 45 51 53 54 54 51 52 52 38 28 36 44 51 57 63 68 74 88 94 96 96 95 96 95 90 75 75 79 81 89 92 91 87 88 85 73 75 73 69
39 34 42 46 53 53 53 55 58 55 52 56 42 29 34 42 48 53 59 63 68 72 89 95 99 97 95 95 91 82 82 82 83 87 88 86 83 85 81 82 81 76 77
45 41 46 52 52 54 53 57 61 55 53 52 44 35 35 41 47 49 52 55 60 66 75 91 98 98 99 95 94 90 87 86 88 89 85 84 85 86 85 89 89 87 87
51 49 54 59 58 55 55 58 63 62 60 54 41 37 38 41 46 48 49 50 54 60 65 77 90 93 96 98 95 96 95 94 91 88 83 88 88 92 90 88 89 90 88
60 56 61 67 63 59 59 60 65 64 61 58 48 39 40 41 44 47 47 48 53 58 62 65 73 86 94 97 96 94 95 97 96 91 86 87 87 89 89 88 86 89 90
66 65 67 71 68 67 65 67 69 67 66 64 59 46 42 42 46 48 49 49 50 54 58 60 64 69 73 77 79 79 80 82 85 85 83 83 86 83 79 78 78 79 81
73 75 77 73 70 69 69 70 71 68 70 74 69 60 51 46 47 50 52 53 53 53 54 54 55 55 57 60 64 66 67 68 69 70 70 69 68 69 72 73 75 77 78
77 77 79 81 79 78 77 74 75 74 76 81 79 74 68 62 58 56 54 54 56 57 58 58 59 59 59 59 60 61 60 60 61 65 64 65 66 67 69 74 72 74 74
87 84 84 85 83 82 83 82 80 80 83 87 87 85 80 75 72 69 67 66 65 65 65 64 65 68 64 61 62 62 61 62 64 63 65 67 69 70 71 74 74 77 78
91 88 90 89 89 88 87 87 86 88 90 91 90 91 87 86 87 87 85 81 76 73 74 76 78 77 75 76 77 79 79 79 79 80 78 75 73 72 72 73 74 75 77
92 95 94 94 94 94 91 92 93 96 94 95 92 91 92 93 93 92 90 88 86 85 83 81 80 79 77 78 81 84 86 89 90 89 87 90 92 92 90 91 92 92 90
97 89 88 88 88 87 86 87 90 91 89 89 90 88 86 86 88 88 85 85 84 83 82 80 78 77 75 74 74 76 81 83 81 80 80 81 82 83 85 89 92 96 94
98 97 97 95 87 82 78 76 77 78 80 83 80 80 83 75 66 65 67 65 63 62 62 61 60 56 53 50 49 49 52 52 53 52 52 54 55 56 57 59 63 69 72
98 98 96 95 95 94 89 88 84 77 72 70 72 76 69 61 59 59 59 58 54 50 47 47 47 47 44 37 35 34 35 35 36 38 38 37 36 35 35 35 36 42 44
98 98 98 95 92 89 88 87 79 77 78 79 79 74 70 63 62 59 58 57 54 52 50 49 43 38 36 36 35 34 36 36 36 36 37 37 36 35 33 32 33 36 40
98 97 95 94 90 87 87 84 81 78 74 72 70 63 60 61 62 61 59 57 55 51 51 49 45 45 43 40 37 35 34 34 34 33 32 31 31 30 30 31 35 38 43
97 94 89 86 80 77 75 75 76 74 74 74 71 67 65 63 62 60 59 56 54 51 48 45 43 39 36 34 32 32 31 31 31 31 31 32 33 33 33 34 34 35 37
97 87 82 80 80 77 75 72 70 70 68 67 63 63 61 59 57 57 55 53 50 48 46 44 41 41 39 38 38 37 37 36 35 36 37 37 37 37 37 37 38 39 40
97 94 91 83 79 77 74 73 73 72 69 67 65 64 61 58 57 55 56 53 47 43 44 45 44 44 42 42 42 41 42 41 41 43 42 41 42 42 43 43 44 46 49
95 88 82 76 76 75 70 68 65 64 63 61 59 58 56 54 53 52 49 48 48 47 45 44 43 44 44 45 45 45 45 45 45 45 45 46 45 44 45 45 44 44 46

GFSMW_prec_cthk_084.txt.gz
RH
26 28 25 23 30 40 49 45 43 47 50 48 50 46 51 49 32 25 25 31 42 50 61 66 67 78 78 87 94 98 95 96 97 90 82 68 60 51 46 49 46 48 58
24 28 27 26 31 43 49 47 45 48 48 50 49 49 51 46 30 22 26 39 50 58 70 75 77 76 86 94 94 98 96 98 95 87 83 75 75 65 60 59 56 62 60
24 29 27 27 39 46 52 49 46 48 48 52 52 53 54 48 36 26 30 46 58 68 75 78 83 85 92 99 95 98 97 94 96 87 81 82 81 71 67 62 60 63 62
23 31 30 33 42 41 50 52 49 51 49 53 52 53 48 42 32 25 34 52 58 75 87 92 90 90 91 96 97 98 97 94 97 93 85 82 74 69 68 64 59 59 60
26 30 38 41 38 40 44 50 49 48 50 52 53 56 47 39 29 29 37 50 58 67 83 86 91 93 94 97 98 98 98 96 94 95 92 82 77 71 63 62 60 61 63
30 32 39 43 46 42 44 47 47 48 53 52 55 57 48 37 29 33 41 50 57 65 79 87 91 94 94 95 97 99 97 96 96 94 91 90 80 80 77 74 76 71 68
51 51 56 47 44 45 48 47 45 50 53 54 61 60 50 39 32 35 42 51 55 62 71 85 91 96 96 97 96 98 97 96 95 93 93 90 81 79 80 92 86 85 84
58 62 58 50 47 47 51 49 46 49 53 58 62 63 50 42 34 37 42 49 54 59 65 76 89 97 99 99 97 97 98 97 96 94 91 84 76 76 79 80 81 89 89
66 69 59 51 57 59 55 48 47 49 54 60 64 66 52 47 41 40 43 46 50 55 65 69 93 95 96 97 98 98 98 96 94 95 90 86 83 79 79 81 87 89 90
65 77 69 64 63 67 60 49 47 55 62 65 68 67 58 52 45 44 44 49 50 52 60 67 88 94 98 99 99 97 96 97 96 95 92 87 86 88 88 89 91 94 93
68 68 70 69 69 68 59 68 61 68 68 71 70 71 64 55 47 46 48 47 48 49 56 62 77 91 97 98 97 98 97 96 95 95 85 84 88 89 92 94 93 94 94
74 71 70 73 72 67 72 79 78 74 75 73 70 74 72 61 48 49 49 49 47 48 52 60 64 84 93 98 97 97 96 98 99 96 93 92 94 94 95 95 94 95 93
80 77 68 74 75 78 80 74 75 75 78 75 74 77 73 70 60 50 51 51 50 47 52 56 60 63 75 92 95 97 98 96 96 95 94 95 94 96 95 89 87 82 80
86 80 74 73 74 79 80 79 80 79 77 73 74 76 74 72 70 62 53 52 52 51 54 56 58 59 62 67 76 81 85 87 80 75 72 74 74 70 73 71 71 69 72
92 90 82 73 77 81 82 85 87 83 82 78 78 82 76 76 74 69 63 55 54 55 55 58 59 62 62 62 64 66 66 71 67 76 71 65 66 67 67 67 68 70 71
96 91 92 85 81 84 86 88 89 89 88 84 81 83 82 80 78 77 74 69 63 62 63 63 64 63 65 67 67 67 66 69 70 68 76 79 77 78 78 79 78 81 84
94 94 97 94 85 86 91 90 93 90 92 90 86 86 87 84 83 80 79 81 76 71 70 70 73 74 74 74 75 77 79 82 83 87 89 85 87 88 88 85 86 88 88
90 96 98 97 96 88 92 93 95 95 94 93 91 91 92 91 90 92 93 93 92 92 89 81 78 77 80 83 87 88 87 86 86 85 85 86 86 86 87 87 86 86 85
93 96 96 98 97 96 96 95 99 97 98 99 97 96 97 92 92 95 96 96 95 96 97 96 95 95 94 94 94 92 91 88 88 87 86 84 82 75 74 75 70 63 59
92 93 97 97 98 97 97 95 96 99 97 97 99 95 94 94 93 94 95 96 96 96 97 98 97 98 97 94 91 85 77 70 64 61 57 50 47 45 42 40 39 39 40
90 91 94 96 97 98 96 96 97 95 98 93 96 97 98 91 97 93 91 88 88 87 85 82 75 66 64 62 57 54 53 52 52 49 43 40 38 37 36 37 38 40 42
89 93 93 95 96 97 97 96 96 98 96 98 97 97 97 97 96 96 95 92 82 81 80 77 72 66 61 56 54 53 53 51 48 43 42 40 39 40 39 40 40 40 37
89 92 97 96 96 97 96 97 99 96 97 97 97 96 98 97 96 95 94 91 88 84 79 75 72 70 68 65 61 59 58 59 60 58 56 54 48 44 39 38 37 38 38
91 92 96 95 93 91 91 92 91 89 89 88 89 92 91 89 88 90 89 91 93 92 89 84 81 79 75 72 71 67 63 63 61 58 57 52 48 46 45 43 41 39 38
97 94 96 95 95 93 90 89 86 84 80 77 75 74 75 73 70 68 65 65 65 64 63 62 62 62 62 62 61 57 54 52 51 49 46 43 40 37 33 30 27 26 25
97 96 96 96 95 91 90 90 88 87 86 85 84 83 82 79 78 76 72 72 70 68 65 64 62 61 60 59 57 54 49 42 38 35 32 29 26 23 22 20 19 17 16

GFSMW_prec_cthk_087.txt.gz
RH
24 26 29 32 26 24 25 29 38 39 44 50 48 48 49 49 50 51 42 27 23 32 40 49 56 61 70 71 73 77 91 97 98 98 97 94 89 75 59 51 46 44 40
21 23 31 29 27 25 29 31 39 41 43 49 52 51 48 48 50 47 40 27 26 37 53 57 64 72 72 73 75 86 93 99 97 97 96 95 89 74 59 55 53 46 44
21 18 29 29 28 29 29 34 42 47 45 52 54 48 50 50 51 46 37 22 28 44 55 62 71 72 78 80 77 85 93 97 97 97 92 93 86 76 64 54 53 51 51
29 16 28 30 29 31 33 42 48 51 48 54 49 46 50 50 50 46 31 26 34 50 57 69 80 83 84 86 85 87 96 96 96 97 95 90 83 73 74 65 64 60 56
37 23 29 30 35 40 41 42 47 47 48 49 45 50 53 55 52 44 33 30 39 48 56 68 75 84 91 91 91 96 98 95 96 95 95 91 87 86 81 74 68 62 60
44 36 40 41 45 43 41 44 42 43 46 49 47 55 58 58 57 41 32 35 44 50 58 69 79 90 89 93 95 98 97 99 97 95 96 93 89 87 84 75 68 62 62
56 46 39 47 39 46 46 40 41 41 48 48 49 57 60 62 59 42 33 38 44 51 56 68 77 88 95 95 96 97 99 98 96 95 95 95 90 90 88 80 75 75 74
65 60 53 43 40 41 55 44 48 48 50 51 54 59 61 67 62 45 39 40 45 50 56 63 74 87 96 98 98 99 99 98 98 98 97 95 91 92 88 82 80 87 88
63 63 58 54 49 51 51 53 51 57 55 56 56 60 65 70 64 48 42 40 44 49 55 62 74 84 96 98 99 98 97 99 98 98 98 95 95 94 89 86 89 90 85
67 69 69 71 70 62 79 76 67 63 60 58 60 61 65 75 61 54 46 42 44 49 54 61 72 81 95 97 99 99 98 98 97 96 97 96 97 94 89 89 87 84 81
66 70 78 83 81 74 90 92 90 86 67 59 62 63 69 74 67 57 47 45 46 49 53 58 66 75 96 98 98 98 98 99 98 98 97 98 97 94 91 90 89 88 86
73 73 80 84 84 83 84 90 88 94 64 62 70 70 74 79 73 61 48 49 50 48 49 54 60 66 92 98 98 98 98 97 98 97 97 98 96 94 93 91 88 89 89
82 77 74 79 83 83 83 82 87 89 86 82 77 76 83 82 76 68 57 52 52 52 49 53 58 63 72 96 98 98 98 97 98 98 96 97 95 94 89 91 95 96 96
92 85 80 76 73 75 81 83 83 88 90 82 81 81 85 84 80 77 69 64 54 52 52 53 56 59 63 75 96 98 99 98 98 98 98 99 98 97 96 96 98 96 88
87 89 90 85 81 76 83 86 85 87 88 87 87 89 86 86 84 83 77 74 64 54 53 56 58 60 63 67 72 88 96 98 98 96 87 77 74 72 77 71 70 68 67
88 89 91 91 87 79 79 86 89 90 89 89 92 91 89 88 84 83 82 77 75 70 62 62 62 63 65 67 67 70 71 70 70 75 71 75 70 67 69 68 67 72 74
90 89 92 94 95 87 80 85 87 91 92 92 93 93 92 92 92 91 86 83 80 78 76 71 69 70 70 71 71 70 69 66 69 67 76 73 73 81 83 80 82 83 85
88 90 91 91 92 97 88 83 89 94 94 95 97 96 94 95 94 93 87 86 84 82 83 84 78 76 76 79 81 80 77 77 79 81 80 82 90 93 91 86 87 87 84
85 87 92 94 95 97 97 92 91 93 95 99 97 97 94 98 96 94 92 87 87 87 88 89 89 90 84 81 85 85 85 85 88 90 92 92 88 87 87 81 79 88 84
80 86 89 91 93 97 99 99 96 93 97 97 99 96 98 97 97 95 95 96 97 95 97 98 97 98 97 94 96 97 98 97 94 93 93 94 91 87 82 71 58 51 47
78 85 89 92 93 97 97 97 97 96 91 91 95 98 96 98 98 98 97 96 95 96 96 97 98 98 94 95 96 95 94 93 89 81 68 56 50 49 49 47 44 42 42
77 81 91 92 92 96 97 97 97 97 97 94 98 96 97 97 97 96 97 98 97 97 94 94 91 89 91 89 82 74 71 69 62 54 50 48 46 43 41 40 39 40 41
80 84 88 93 94 97 97 96 97 95 96 97 97 97 98 97 96 97 97 98 96 98 95 91 84 80 79 75 72 69 65 61 59 59 59 60 61 59 56 57 58 56 52
80 84 89 90 91 96 97 96 95 94 95 97 96 96 97 96 96 97 98 97 96 97 95 97 92 89 89 87 85 83 80 79 77 75 74 72 68 67 62 58 55 52 48
86 88 96 96 95 98 96 95 95 93 91 92 93 93 94 96 96 95 93 92 91 91 90 86 86 85 84 81 80 79 78 76 71 67 62 57 54 48 42 37 31 28 26
96 93 95 97 97 97 97 96 95 94 93 93 91 90 88 90 87 84 82 82 81 80 78 78 77 75 73 70 66 63 60 56 54 51 46 42 38 34 29 25 22 19 18

GFSMW_prec_cthk_093.txt.gz
RH
29 34 36 35 36 34 34 40 38 25 26 34 32 36 42 62 70 55 51 50 51 49 46 44 32 26 31 37 43 56 64 74 86 89 91 93 91 93 98 96 90 85 70
35 34 36 35 40 38 32 34 34 27 25 33 27 33 43 67 80 74 60 53 53 50 49 45 31 29 33 42 50 54 69 82 87 88 91 87 96 97 99 96 93 90 73
41 38 40 38 41 41 36 38 42 35 25 24 30 40 57 73 87 79 61 56 53 52 51 41 31 34 41 50 54 61 71 77 86 86 82 87 95 98 99 97 96 92 74
51 48 52 44 42 40 34 35 39 40 31 29 34 43 56 68 67 67 63 60 52 52 55 38 33 37 50 58 63 68 74 80 78 75 81 89 94 97 97 99 96 92 73
57 57 56 53 44 40 32 27 38 41 40 37 37 50 58 69 72 77 68 53 53 54 56 35 33 41 54 61 66 75 82 87 87 83 81 89 94 98 96 96 97 94 75
67 67 70 61 54 46 39 27 36 43 45 41 42 50 56 67 70 74 62 56 55 57 48 33 33 43 50 61 69 75 79 86 85 83 78 89 93 97 97 96 95 91 73
83 78 77 74 68 57 46 38 41 45 44 46 52 53 61 69 72 69 59 56 56 57 39 30 37 44 49 59 71 74 83 88 86 86 84 91 97 96 96 94 91 83 72
98 90 87 81 74 59 47 46 55 54 52 56 60 64 71 73 66 63 54 57 57 54 36 34 39 46 57 62 68 76 84 90 91 94 81 98 98 97 96 92 91 90 82
95 94 95 85 75 64 56 57 60 57 63 57 66 81 76 64 65 57 60 60 58 54 39 40 43 50 55 63 71 83 88 96 98 94 91 96 96 97 96 94 92 90 90
96 96 90 88 83 76 60 60 67 68 69 65 77 85 72 66 65 59 58 61 62 54 43 42 45 50 55 63 71 81 94 97 97 97 95 98 98 98 96 97 93 91 92
94 88 89 89 90 84 74 69 68 71 78 76 83 86 77 75 68 62 63 64 64 56 46 44 46 49 54 62 67 85 98 99 99 99 97 98 98 98 96 95 94 98 94
95 92 87 85 91 91 86 81 77 81 87 87 91 92 85 80 75 67 69 67 66 57 47 45 51 51 52 59 65 86 97 98 98 97 98 98 99 98 97 96 95 98 94
91 93 90 87 85 88 93 92 88 87 90 92 93 95 93 90 71 65 68 69 73 58 48 46 54 55 55 61 67 83 98 99 98 98 99 98 97 99 98 97 98 96 98
87 86 91 88 85 85 92 96 94 92 92 95 92 94 96 95 75 69 71 75 73 67 54 50 53 56 56 62 65 74 96 98 98 98 98 99 98 98 97 97 97 98 97
85 86 89 89 87 85 84 86 91 96 92 95 95 97 98 98 78 76 77 79 78 72 67 59 55 56 58 62 66 74 87 96 98 99 98 99 97 99 98 98 98 98 98
85 86 89 89 88 91 88 86 90 91 95 95 95 97 98 96 84 79 79 84 82 78 70 64 65 59 57 64 67 70 74 88 97 97 97 99 98 97 99 98 98 98 98
83 82 86 87 88 89 92 89 83 82 86 87 96 95 94 98 87 83 85 86 87 86 83 76 70 73 67 66 69 73 76 75 79 96 98 99 98 99 99 98 98 99 98
76 75 80 83 87 86 88 92 91 85 82 83 98 83 97 99 95 97 93 91 91 92 90 87 79 77 77 78 79 79 79 82 82 74 78 82 84 88 92 94 93 85 80
71 72 71 75 80 83 85 90 94 94 88 93 92 93 99 99 100 96 93 94 97 95 94 93 88 83 85 83 82 85 87 86 88 91 91 89 82 77 81 78 78 80 77
64 69 71 74 75 80 85 90 93 96 96 91 86 87 95 98 94 92 93 94 96 95 95 94 92 93 88 89 88 86 89 91 90 90 90 88 87 87 89 86 87 85 89
64 67 69 72 73 77 82 85 90 94 96 96 90 84 86 90 98 91 98 99 96 95 96 95 93 93 95 96 93 90 91 92 93 95 95 96 90 89 92 96 96 97 96
68 69 70 70 71 72 78 83 86 89 92 95 97 96 93 89 93 94 92 95 98 98 98 98 98 97 98 97 96 97 96 94 96 96 96 97 98 98 98 98 97 95 91
70 68 70 72 74 74 75 81 86 89 87 89 93 96 96 96 97 95 94 96 98 97 97 98 98 98 98 98 96 96 97 96 96 96 97 96 93 88 86 86 84 78 75
74 74 75 74 76 78 78 78 82 87 88 89 91 92 93 94 95 95 95 96 97 97 94 97 96 97 97 97 97 97 97 97 97 97 92 90 86 85 82 77 77 76 74
75 75 76 76 77 79 79 81 82 84 88 91 92 94 94 93 95 95 96 96 97 97 97 97 94 94 95 96 97 96 97 97 96 97 97 96 96 95 91 84 77 70 67
77 80 81 80 79 80 81 83 84 91 93 93 95 96 97 97 98 96 95 95 97 97 97 97 97 97 96 96 96 96 94 91 88 84 81 75 71 68 66 64 62 59 56

GFSMW_prec_cthk_096.txt.gz
RH
26 26 23 22 24 29 34 36 38 38 41 40 47 52 54 51 50 56 66 49 50 54 51 52 50 49 38 32 37 42 42 55 62 73 82 82 90 98 97 95 95 95 94
34 36 35 29 27 31 34 37 38 39 37 40 42 51 50 50 48 53 67 73 58 58 56 55 52 50 37 36 35 40 46 54 64 71 83 85 85 91 91 95 97 97 94
38 40 43 42 35 34 35 37 38 40 39 37 36 41 45 43 48 52 61 88 82 67 61 59 53 51 40 35 33 41 54 61 66 75 85 89 85 88 89 91 97 98 93
41 46 52 52 45 39 35 37 38 43 42 44 39 37 33 40 39 44 64 92 94 68 62 61 55 51 38 33 34 51 60 64 69 78 84 83 81 84 80 94 97 98 94
53 57 67 66 50 48 47 40 43 44 44 40 46 44 35 36 34 57 65 77 81 69 67 62 54 51 38 34 39 54 64 70 77 81 84 86 83 72 81 91 99 98 95
68 74 81 76 60 56 54 48 48 42 40 42 50 50 41 37 45 58 67 76 68 76 67 61 56 51 37 34 41 55 65 72 79 83 86 89 86 80 77 88 96 97 96
76 79 83 78 67 66 60 54 49 43 40 43 53 52 49 44 54 58 73 73 71 68 60 58 58 45 33 36 42 54 64 72 76 80 83 88 87 81 78 93 97 97 98
83 84 87 89 78 76 69 63 54 46 44 49 55 59 55 53 62 69 74 75 67 61 55 57 59 41 35 40 49 52 61 70 74 80 84 84 83 84 86 95 98 98 98
83 87 90 91 89 84 76 71 59 51 54 58 59 57 58 62 63 67 85 81 63 57 54 58 55 43 41 45 48 56 62 68 78 82 87 87 86 89 89 98 97 93 92
86 88 92 97 95 89 81 78 66 58 63 72 72 66 67 69 66 75 91 75 63 55 56 60 55 46 43 47 52 58 64 68 77 87 94 96 94 88 94 98 97 94 93
87 88 89 94 95 91 87 76 70 69 77 80 79 75 73 72 76 86 79 77 63 58 60 65 59 49 49 48 52 58 63 69 75 93 96 96 94 95 95 98 98 96 94
87 88 85 89 90 91 89 84 77 81 81 85 82 75 69 82 77 91 90 81 62 64 67 70 62 50 52 52 53 53 61 68 89 99 96 97 96 93 94 98 97 95 94
85 82 84 87 86 88 92 92 89 90 92 88 87 84 81 84 85 93 88 78 68 70 72 72 64 54 53 49 52 53 61 73 96 95 96 97 97 96 98 98 96 95 96
85 81 82 89 88 87 94 91 96 96 95 95 93 94 95 97 97 98 91 80 74 74 73 76 64 56 52 49 54 55 59 78 95 98 97 96 97 97 98 98 97 96 97
90 85 82 89 93 92 91 90 91 96 98 92 88 95 96 94 99 97 92 83 77 77 77 77 65 57 52 50 53 58 66 78 95 97 98 97 99 98 99 98 98 97 96
92 87 82 87 91 94 93 89 87 84 92 93 92 96 98 98 98 98 93 78 80 81 81 81 74 63 58 56 55 60 68 78 87 98 99 98 98 99 98 98 99 98 98
89 82 79 81 89 92 92 93 89 86 85 92 92 97 98 97 97 94 99 86 85 86 83 82 81 69 63 61 60 60 67 72 75 80 96 98 98 99 98 98 98 99 98
86 77 75 77 82 89 92 90 91 89 86 87 95 90 97 97 97 98 97 95 88 87 85 86 85 83 79 73 74 75 73 72 79 78 80 95 96 98 98 98 98 98 98
74 74 75 73 75 79 85 87 91 93 92 88 86 85 98 97 96 97 98 98 94 89 88 90 89 90 89 87 83 84 84 83 88 88 89 78 79 85 90 90 90 97 98
66 69 72 73 74 72 75 83 88 92 92 95 91 94 92 91 97 98 99 98 96 98 94 97 95 92 90 91 88 90 89 87 85 89 91 90 95 98 95 93 96 85 92
69 72 72 71 72 72 72 76 83 86 91 95 95 93 94 87 97 98 98 98 97 95 98 97 97 97 95 94 93 92 95 94 89 89 90 94 95 95 97 92 91 91 95
70 71 72 73 74 74 73 72 73 83 86 90 92 93 93 92 89 88 95 98 95 98 98 96 97 98 97 97 96 96 95 96 96 96 93 95 97 97 95 94 96 96 96
77 76 75 75 74 74 74 75 76 76 81 85 86 87 88 91 91 90 90 86 91 94 97 93 95 98 97 98 98 98 97 98 98 98 97 98 96 93 94 95 96 97 96
75 74 75 78 76 75 75 76 76 78 80 81 84 87 88 89 89 92 93 91 90 91 94 95 94 96 97 97 96 97 96 97 97 97 98 98 97 97 96 95 91 89 88
72 73 74 75 76 77 78 78 79 79 81 84 86 88 89 89 89 90 91 90 93 95 96 97 96 96 95 96 96 95 94 95 96 96 97 97 97 96 97 97 96 95 90
73 73 76 76 76 76 75 76 78 80 82 83 85 88 91 94 93 93 93 92 93 95 95 96 96 95 93 94 94 95 95 95 94 94 95 96 94 91 86 80 77 74 71

GFSMW_prec_cthk_099.txt.gz
RH
21 21 19 19 19 20 19 18 19 24 26 26 30 38 38 49 55 54 57 61 63 63 54 45 49 46 44 45 44 38 40 43 53 53 58 65 73 90 87 98 94 97 97
24 22 22 21 22 24 28 27 21 24 27 30 31 32 37 44 56 59 61 63 61 67 60 52 53 51 48 49 48 36 38 44 51 45 56 70 78 86 88 93 95 95 98
29 27 27 30 32 30 33 36 30 27 31 30 42 45 46 47 57 63 58 59 63 73 75 62 65 59 53 50 50 38 38 44 47 47 63 66 73 85 94 93 94 92 98
32 34 38 40 44 44 48 44 40 33 33 36 43 48 49 47 43 50 52 59 63 69 82 83 81 70 60 56 52 38 39 48 52 57 62 68 75 88 87 90 91 96 97
34 36 40 47 53 58 59 58 46 41 34 37 39 50 52 49 49 46 49 50 58 62 65 64 98 83 68 60 50 40 41 45 57 63 67 69 82 86 84 83 91 83 88
37 40 45 55 65 73 69 61 52 48 42 41 40 53 58 60 52 47 43 50 58 59 65 70 76 82 70 61 48 41 44 49 60 66 71 74 83 82 83 83 83 76 87
46 46 53 67 80 84 74 66 62 52 50 50 53 59 60 65 57 52 46 51 51 58 74 74 80 74 68 59 50 40 44 50 60 67 72 81 88 89 92 88 83 82 81
49 52 68 79 84 89 81 78 72 62 57 56 57 55 60 67 62 55 53 53 57 72 78 77 76 76 64 62 50 39 50 50 59 66 68 75 82 89 89 94 89 85 84
52 61 77 83 88 94 90 87 78 71 60 57 57 55 60 66 66 63 61 63 64 71 73 80 78 73 66 63 46 43 48 54 61 61 68 74 80 83 85 86 83 86 88
54 71 78 84 88 98 98 93 84 76 64 60 62 65 66 68 71 70 66 66 81 86 93 87 78 68 66 60 46 44 51 51 56 61 68 73 77 81 85 83 84 87 95
54 70 77 86 87 95 98 92 86 82 72 69 70 74 73 76 75 71 68 69 75 80 91 90 76 66 66 56 47 48 50 53 58 63 67 72 77 91 94 91 87 86 97
57 71 76 83 89 93 97 97 92 85 84 79 77 83 85 94 85 78 76 73 72 76 94 83 72 71 70 59 53 53 53 55 57 63 68 72 83 96 93 93 98 91 97
65 80 77 80 91 96 98 98 98 94 91 90 94 93 90 87 91 81 81 78 72 78 89 77 74 73 72 62 52 54 57 56 56 62 66 83 96 98 96 95 93 94 98
68 83 83 83 92 95 94 99 98 97 96 91 93 96 93 92 89 90 87 81 79 79 90 75 73 73 72 61 56 55 56 53 61 66 79 89 97 96 96 94 95 99 98
79 82 89 84 90 93 95 97 93 92 96 97 97 94 92 93 92 88 90 94 88 89 85 75 76 78 74 64 56 55 55 58 64 70 85 92 97 97 99 97 97 98 97
90 90 90 81 87 92 93 95 94 93 92 96 98 98 94 94 96 98 95 98 97 97 84 78 77 77 73 66 60 57 54 59 67 70 87 96 97 98 98 99 98 98 98
94 93 91 81 79 89 93 92 92 95 89 93 98 96 96 98 97 99 97 97 99 98 90 82 79 79 74 74 69 62 58 61 68 70 73 92 96 98 98 98 99 98 99
92 92 83 78 79 82 87 92 92 94 94 90 88 91 95 98 98 98 99 98 99 98 94 83 80 80 80 81 77 73 69 65 68 72 71 77 91 97 98 98 99 98 98
88 80 79 80 78 80 80 85 89 95 96 94 93 94 99 96 98 98 98 97 98 99 94 87 86 85 87 88 89 86 80 78 80 77 85 81 78 77 92 98 96 96 99
78 75 78 77 77 75 73 76 84 90 92 94 95 93 91 95 97 97 99 98 99 98 98 97 91 88 89 91 95 94 91 87 87 83 83 85 86 85 85 87 95 96 94
75 77 76 75 75 73 72 72 75 79 85 92 94 94 92 93 95 96 98 98 98 98 98 98 95 92 94 95 97 95 95 93 90 92 90 87 87 88 92 95 96 95 94
76 76 76 76 76 76 75 74 73 75 77 83 88 88 89 90 94 94 94 96 97 98 98 98 99 98 98 98 98 99 98 96 95 93 92 91 91 90 94 95 96 95 95
81 80 78 77 77 75 75 73 73 73 74 75 75 81 85 85 86 89 90 93 95 96 97 96 96 97 97 98 99 98 97 98 97 97 96 95 96 94 94 99 97 96 98
78 76 74 73 73 73 73 71 71 72 73 73 73 74 75 79 81 85 87 90 92 93 96 96 94 95 97 97 94 93 97 98 97 98 97 94 94 96 96 97 98 97 97
72 71 70 70 70 71 70 70 72 72 72 73 74 75 77 78 79 82 85 87 89 90 91 93 94 95 94 96 96 94 95 96 97 97 97 97 96 95 95 96 97 97 94
69 68 68 68 66 64 64 64 64 68 69 70 72 73 75 77 78 80 82 82 85 87 88 90 91 90 91 93 93 92 93 94 95 95 96 97 97 97 96 95 93 89 87

GFSMW_prec_cthk_102.txt.gz
RH
28 27 25 23 21 20 20 20 17 16 15 17 19 25 30 34 40 63 66 56 51 51 58 60 62 57 53 52 49 49 47 41 40 44 43 60 55 60 63 70 90 96 98
29 26 24 23 25 25 25 23 22 21 22 22 23 27 34 32 33 45 56 61 62 56 60 61 69 63 59 57 54 52 52 47 41 42 48 56 52 58 65 79 90 97 98
32 29 25 24 25 26 29 30 32 28 26 29 26 26 35 40 37 35 42 46 62 62 58 65 76 73 66 63 61 56 58 52 40 42 45 58 50 60 70 77 84 93 91
32 30 29 28 30 31 34 38 38 38 37 35 37 34 37 44 40 41 38 43 59 63 62 68 72 77 72 67 67 62 62 57 44 45 47 57 55 66 69 80 88 94 89
33 32 32 32 34 36 39 43 45 47 50 50 48 42 37 45 51 55 50 47 51 58 61 57 67 92 76 70 71 65 66 62 49 40 44 58 60 70 72 82 93 93 90
36 36 35 35 37 40 46 51 55 57 62 62 51 45 41 44 55 58 59 52 50 56 62 66 66 68 60 62 74 69 71 64 51 42 47 65 66 74 73 90 92 93 89
41 38 37 37 38 43 50 61 66 63 62 56 51 47 42 45 56 63 68 65 57 60 62 60 61 59 67 70 69 65 76 58 50 42 48 64 71 79 78 88 88 87 88
41 38 36 39 41 45 54 69 74 65 67 64 57 51 45 47 60 71 74 73 63 59 62 61 57 64 76 80 69 69 70 59 50 46 52 65 72 78 85 92 89 91 91
40 39 37 38 44 47 62 72 80 76 74 66 59 57 60 65 72 69 76 79 75 65 65 65 66 74 84 74 76 77 67 58 45 52 56 62 69 72 78 86 90 91 89
46 43 38 40 46 52 69 79 90 83 80 74 69 72 77 69 67 72 76 77 73 64 62 64 71 81 91 95 94 82 66 58 47 53 58 60 68 70 75 79 83 86 89
48 46 41 42 51 57 73 82 91 87 83 81 76 75 73 70 68 69 74 80 71 63 64 71 84 89 98 95 93 79 69 53 46 59 56 57 63 69 73 76 79 83 84
46 42 36 43 55 63 76 82 89 92 90 86 83 79 75 73 81 81 78 84 82 77 76 78 81 85 92 92 79 81 66 48 52 55 58 62 66 65 70 76 78 87 91
37 38 38 46 61 65 75 84 93 93 96 90 91 91 90 88 89 89 92 89 89 83 80 81 78 77 97 92 78 77 63 57 57 61 61 58 61 62 66 74 90 89 97
39 45 51 54 64 71 76 81 90 97 98 95 93 96 94 95 98 91 97 97 94 86 84 83 78 80 87 80 78 79 68 60 58 61 59 55 59 62 74 92 97 96 97
51 58 61 63 75 76 77 85 92 96 95 94 97 94 98 90 98 95 96 98 91 85 85 81 82 82 81 76 80 79 67 62 57 56 59 61 67 73 88 98 97 97 98
62 68 70 77 86 76 78 90 93 96 97 97 98 98 97 96 96 95 94 94 97 95 94 91 91 84 81 78 82 78 69 59 56 57 61 66 71 81 96 96 99 99 98
68 76 86 89 87 81 83 91 95 96 98 98 94 95 99 98 97 94 97 99 96 94 93 93 95 90 86 83 82 75 69 63 59 60 64 70 72 80 96 97 99 99 98
88 85 94 90 86 83 85 91 95 97 98 98 96 95 98 98 98 99 97 98 99 98 98 98 97 98 87 82 81 77 73 69 66 62 66 71 74 74 86 97 98 99 99
96 95 91 90 87 86 86 86 90 95 97 98 98 97 94 97 98 98 96 96 97 98 98 98 99 94 89 87 82 79 78 75 71 72 72 77 81 81 77 87 96 98 98
95 90 89 90 89 85 83 79 81 89 94 96 97 98 96 98 96 97 97 99 99 99 99 98 98 98 96 90 87 84 87 87 85 83 81 81 85 86 87 85 84 94 97
90 91 90 87 84 83 81 77 77 78 85 90 94 95 95 96 95 95 97 98 98 98 98 98 98 98 99 98 98 95 93 93 92 91 91 89 88 90 89 90 91 92 90
90 90 88 83 81 79 78 77 75 75 75 77 84 89 90 89 91 94 97 97 97 98 98 98 98 98 98 99 98 98 97 97 96 94 93 94 96 95 93 96 95 96 96
88 86 83 81 79 77 75 73 73 72 71 70 71 73 77 83 88 86 88 94 96 96 96 97 97 97 98 97 98 97 98 98 98 98 98 97 96 95 95 96 97 97 98
88 83 79 75 73 72 71 69 68 68 69 69 69 70 70 71 73 78 84 85 88 90 93 96 96 96 97 98 96 96 98 98 98 97 97 98 98 98 98 96 97 96 96
69 67 66 64 63 63 63 62 60 60 61 62 63 65 67 69 70 71 72 75 81 84 87 89 90 92 95 95 96 96 97 96 96 96 97 97 97 97 96 97 97 97 97
67 64 60 58 57 53 49 47 49 48 50 51 51 52 56 60 64 67 69 71 74 75 78 82 84 86 87 87 88 93 96 95 95 96 96 97 97 97 96 97 97 97 96

GFSMW_prec_cthk_105.txt.gz
RH
46 42 38 32 31 30 24 21 19 18 17 17 18 20 22 27 36 45 57 65 70 72 69 65 60 54 54 58 56 53 54 54 52 51 42 42 44 43 47 50 61 58 64
45 42 34 30 29 26 25 23 22 21 20 18 18 18 20 19 31 40 39 50 55 69 79 73 71 58 58 62 65 56 58 61 58 55 48 43 43 39 45 46 51 61 69
42 36 31 30 30 27 26 26 27 27 28 27 25 24 23 21 21 33 38 38 44 51 74 68 82 60 59 60 69 62 59 63 60 56 54 47 43 40 44 45 50 62 72
39 35 31 30 30 30 28 29 31 33 36 37 35 34 32 30 26 29 47 35 37 53 53 62 88 64 62 65 74 72 67 67 59 56 55 47 47 41 45 49 56 65 73
39 34 33 31 32 33 31 31 34 37 41 43 43 42 39 39 41 33 49 45 42 44 49 53 65 76 72 70 79 88 78 71 64 53 55 49 48 45 49 55 60 66 75
41 37 35 33 33 37 36 35 37 42 44 48 50 50 51 50 52 49 52 52 47 44 51 57 61 67 78 73 70 73 87 77 67 61 59 50 45 43 50 60 67 72 80
41 39 36 34 35 35 35 38 38 42 47 53 55 56 58 57 54 48 48 62 57 49 52 63 58 65 80 69 63 58 95 89 76 66 62 51 44 45 54 69 72 69 81
44 40 37 36 33 34 37 39 40 43 52 60 62 59 60 56 48 45 43 58 63 53 63 71 63 68 79 73 77 69 77 79 80 74 65 56 43 41 59 72 78 75 80
46 40 40 40 37 33 38 38 42 47 59 66 69 67 65 59 53 48 45 58 63 61 70 75 70 75 78 80 73 71 79 81 82 76 69 49 43 46 58 76 78 80 84
43 41 42 41 39 31 37 41 45 50 64 77 76 72 67 64 63 68 56 61 66 71 76 79 71 71 78 77 72 78 87 97 86 74 62 50 43 55 59 69 73 77 82
44 42 40 38 34 32 39 43 46 51 65 78 81 76 73 70 80 84 82 73 78 80 84 78 77 71 71 70 71 81 95 93 83 71 56 45 46 57 59 67 70 72 77
43 38 35 32 36 37 41 46 47 53 68 78 85 83 79 77 76 77 82 79 76 82 84 73 70 68 68 71 79 83 86 91 82 71 57 44 54 58 63 65 64 69 73
35 30 33 36 41 43 46 48 48 56 67 78 87 88 83 87 83 79 78 82 86 81 88 77 75 72 71 75 80 80 91 85 88 71 58 43 58 53 57 62 62 66 71
37 34 39 46 49 51 52 51 52 59 70 80 86 85 89 94 95 89 88 88 87 84 88 90 84 78 82 83 82 86 92 94 85 69 52 54 56 59 60 56 67 68 70
44 43 46 52 56 56 56 59 57 66 78 84 89 93 97 98 97 95 98 97 95 93 93 92 91 86 84 81 79 79 88 79 78 71 58 59 61 62 60 61 63 71 80
51 50 53 60 62 62 62 62 65 76 85 91 95 95 97 98 96 97 98 95 97 99 94 94 91 87 82 81 78 84 81 78 79 69 59 66 59 59 62 69 76 83 90
57 57 61 69 70 73 70 72 76 85 92 95 97 96 96 98 97 96 95 93 99 98 98 96 93 91 84 84 86 82 79 80 81 71 64 60 63 66 70 72 78 95 98
62 67 72 81 82 83 83 83 86 92 96 96 97 97 96 97 98 99 99 99 94 95 96 97 98 95 93 95 93 91 86 82 84 72 66 63 66 71 72 73 73 94 98
76 92 96 91 95 97 94 94 92 91 95 97 97 97 97 97 97 98 98 96 92 93 98 97 98 95 95 95 98 97 91 84 82 74 73 73 76 73 74 76 74 83 96
97 96 97 97 97 97 96 93 90 88 91 94 97 97 97 97 97 97 96 96 94 95 97 99 98 98 98 99 97 98 94 85 82 77 77 76 80 82 82 82 81 83 86
97 97 97 97 97 97 92 92 86 83 84 89 91 94 95 93 95 97 97 96 96 97 98 98 98 98 98 98 98 99 96 91 87 82 88 87 87 87 86 90 86 86 89
97 97 97 97 95 93 91 90 84 79 77 75 75 81 84 86 90 88 91 97 97 97 97 97 97 98 98 98 98 98 98 98 94 98 96 95 94 93 92 94 94 92 90
97 97 98 93 87 83 80 77 75 73 72 70 70 70 69 73 76 79 85 85 89 94 97 97 97 97 97 97 98 98 98 98 98 98 99 98 97 98 97 98 96 97 96
95 89 85 79 75 71 68 65 63 60 58 59 59 60 61 61 62 64 67 74 79 86 88 91 95 96 97 96 97 97 97 98 95 97 96 97 98 98 97 98 98 98 97
77 73 69 65 60 57 55 52 50 48 46 46 46 47 48 50 52 53 55 58 62 67 74 80 84 87 92 95 96 96 96 94 95 95 97 97 97 97 96 97 97 97 98
67 62 58 54 51 45 39 43 42 40 38 37 37 37 37 37 38 40 42 44 47 49 54 57 60 62 66 71 77 86 94 95 96 96 97 96 95 96 96 96 97 96 96

GFSMW_prec_cthk_111.txt.gz
RH
53 50 45 45 47 49 50 41 34 33 29 27 25 24 22 23 24 25 32 38 46 55 61 65 71 70 61 59 60 58 55 59 62 64 63 53 51 53 52 51 46 42 39
59 59 56 56 55 55 50 39 34 32 28 25 24 23 22 20 20 18 19 21 27 35 40 40 50 62 68 74 68 72 76 70 70 76 71 69 58 51 53 53 51 46 43
60 66 61 61 61 57 50 39 36 32 28 25 23 22 22 21 20 18 17 14 15 19 28 34 41 41 46 61 76 92 95 93 89 85 80 76 61 54 56 54 54 52 44
72 55 56 61 63 58 44 41 38 32 29 27 24 25 26 24 23 22 20 19 19 20 25 30 38 46 47 56 63 82 91 89 83 93 93 78 63 56 54 54 56 55 49
71 59 59 64 61 56 42 39 37 32 29 28 29 29 29 30 27 26 26 26 26 26 25 29 36 44 52 62 52 52 60 68 68 71 81 84 72 65 52 54 58 57 51
78 68 62 68 66 56 38 34 31 29 27 27 30 30 30 31 33 31 30 30 30 29 29 31 41 36 51 71 59 56 57 57 58 67 70 69 73 68 59 57 61 62 55
78 81 74 75 66 54 41 36 32 30 26 26 29 32 34 34 38 38 34 33 31 32 31 34 44 48 53 78 95 77 72 67 71 63 76 80 76 70 66 65 66 70 63
88 83 77 68 51 46 44 41 40 37 32 28 28 33 35 35 40 40 40 42 43 42 41 41 44 51 54 66 73 80 81 70 63 60 77 77 74 77 67 63 71 73 68
83 77 69 54 47 46 43 38 32 29 29 30 31 35 36 37 39 41 46 47 49 51 50 45 42 44 49 66 82 93 79 68 67 72 70 73 78 70 72 66 70 70 69
83 78 67 62 60 55 50 42 36 36 36 35 35 37 38 37 37 44 47 52 54 61 60 54 50 47 59 82 89 85 77 63 60 82 73 86 86 81 76 77 81 77 71
84 80 74 66 60 50 46 42 40 40 39 38 38 40 41 40 40 44 50 53 57 64 67 74 72 57 70 89 88 71 64 64 76 87 77 77 79 85 82 78 89 88 80
84 74 64 54 50 47 44 45 45 43 43 43 42 42 43 46 44 46 48 55 61 67 69 77 83 77 81 89 88 72 65 70 88 76 84 89 87 96 85 80 86 93 83
66 58 52 49 47 44 44 46 48 50 51 48 45 45 50 50 49 49 49 57 62 70 73 75 76 81 86 94 86 81 80 82 78 88 94 78 93 85 86 88 89 86 86
56 50 47 47 48 46 49 49 51 54 51 52 51 52 53 53 54 52 55 58 64 74 79 80 79 83 91 97 98 91 90 82 85 91 92 81 79 74 81 87 93 91 85
53 48 46 47 49 49 49 53 53 54 57 58 58 60 60 58 55 56 60 63 74 79 84 85 89 92 95 93 91 92 97 87 86 91 79 84 86 85 93 98 96 84 67
54 55 55 53 51 48 51 52 56 61 64 63 67 66 66 64 62 63 66 73 80 86 89 91 91 90 90 93 93 86 94 88 86 77 87 87 88 92 95 94 83 73 69
54 54 54 51 52 54 58 61 62 69 69 69 71 72 72 71 69 68 75 84 88 91 93 94 96 93 93 96 90 89 90 92 91 94 90 90 93 97 92 88 81 68 63
53 61 55 57 63 67 70 70 74 76 80 80 81 81 80 79 79 80 85 92 94 93 93 94 95 96 98 97 93 98 95 92 96 99 94 95 93 90 94 85 80 69 63
70 74 76 78 83 82 88 87 89 90 92 91 93 91 89 92 95 96 95 97 97 96 93 97 98 98 98 98 98 98 95 98 97 97 98 93 94 98 93 90 83 69 69
84 90 94 96 96 97 97 97 97 97 97 96 94 94 92 91 90 94 95 97 97 97 96 97 97 98 99 99 98 98 97 98 95 92 92 97 94 100 91 87 85 75 68
95 96 96 97 97 97 97 97 96 96 95 92 88 82 80 79 78 81 82 84 86 91 94 95 96 97 96 97 98 98 98 98 96 97 97 97 98 98 89 88 89 78 73
96 97 97 97 97 97 95 91 86 79 77 73 70 63 56 52 49 52 56 57 59 63 69 76 82 89 93 95 96 97 98 98 98 96 96 97 97 98 95 94 93 89 79
97 97 97 93 86 81 76 69 63 57 53 50 46 42 37 37 37 30 26 27 30 37 40 41 46 58 72 81 90 93 95 96 96 97 97 97 98 98 99 97 96 97 88
95 88 79 73 68 61 56 53 42 33 29 25 23 23 23 23 24 23 22 23 21 17 20 23 27 32 38 45 55 70 82 90 95 97 96 96 97 97 97 97 98 98 96
79 72 59 48 39 32 26 25 23 23 23 23 21 21 22 23 23 24 24 24 24 21 20 20 19 21 26 31 32 38 48 60 75 84 89 94 95 96 96 96 96 97 97
53 45 36 27 23 22 21 20 20 20 21 22 22 22 23 24 24 23 24 24 24 23 19 20 22 23 23 24 23 20 21 31 43 50 62 76 83 88 94 96 96 97 97

GFSMW_prec_cthk_114.txt.gz
RH
64 55 46 39 37 39 41 41 44 45 44 38 34 31 29 29 27 30 34 40 42 47 52 59 63 65 68 74 83 81 82 81 73 64 64 63 61 65 59 53 48 49 46
77 68 63 54 47 44 44 44 45 49 47 37 34 33 30 26 24 24 25 25 28 36 40 39 39 44 54 60 70 78 86 81 87 92 88 82 76 66 61 57 54 53 48
82 77 69 63 60 55 56 53 49 50 48 38 34 32 30 27 24 23 23 22 21 20 22 28 31 30 35 40 48 55 67 79 79 85 95 98 95 85 73 60 54 52 52
80 75 75 71 64 63 57 57 54 56 47 36 33 32 30 26 25 23 22 20 21 20 18 16 18 21 23 27 29 39 50 57 63 74 78 91 97 91 86 73 62 55 53
90 89 79 72 67 62 57 57 53 51 42 34 28 28 29 27 25 24 24 24 23 25 25 23 22 22 26 29 30 29 37 48 60 64 78 84 88 81 83 81 69 59 54
81 82 83 79 69 63 58 57 58 56 44 38 32 30 30 28 26 25 25 26 27 28 30 29 28 27 28 32 33 33 33 42 50 56 63 68 70 67 65 72 74 66 55
93 87 81 78 70 65 62 65 67 58 46 31 30 34 32 32 30 27 26 28 30 34 34 34 33 28 29 29 34 41 45 44 52 66 69 72 75 70 59 63 77 68 61
96 91 84 77 75 71 66 62 51 41 35 37 31 28 32 33 33 33 33 32 36 37 38 35 34 34 34 32 37 47 55 58 67 74 88 84 81 80 73 65 76 78 68
98 93 82 81 77 71 64 58 48 41 38 37 37 34 33 34 33 36 35 35 37 38 37 36 37 41 39 39 42 51 60 65 64 62 74 78 81 84 84 83 84 81 76
97 96 91 82 72 67 59 57 52 48 46 49 46 45 40 34 36 38 39 38 35 37 38 40 42 43 42 48 46 50 54 58 74 88 89 78 81 74 80 88 90 82 74
88 82 79 77 76 68 59 51 45 42 39 39 40 42 43 42 42 40 41 39 37 36 40 42 45 50 54 64 63 60 56 73 88 83 84 77 79 85 81 83 85 80 79
81 71 61 57 58 60 57 51 48 44 42 43 45 47 48 45 42 42 43 41 40 41 42 46 52 54 63 69 75 77 73 83 91 81 73 72 78 84 85 85 83 79 82
75 72 68 59 55 53 50 49 47 45 44 47 49 50 50 47 46 45 43 42 44 47 47 50 56 61 70 71 73 88 91 88 89 77 67 73 80 79 81 80 83 85 91
69 68 65 58 57 56 52 50 50 48 48 51 51 54 55 54 52 52 48 48 50 52 52 56 62 67 77 79 76 83 93 92 92 84 80 80 88 86 85 88 90 88 94
63 62 56 53 55 55 54 53 51 53 55 55 58 59 61 60 61 57 54 54 56 56 59 66 72 77 82 82 84 90 91 88 87 96 91 90 92 91 94 89 85 89 95
54 49 51 52 56 55 57 57 58 59 60 60 61 64 67 72 70 65 63 63 62 62 69 75 80 88 90 93 95 93 96 95 98 95 94 98 94 89 90 90 86 91 94
54 57 60 63 60 59 62 65 68 67 64 66 67 69 71 70 71 72 72 71 69 73 79 80 87 93 96 96 98 98 98 98 99 99 93 96 96 87 90 90 94 99 97
58 62 63 65 66 67 72 76 74 73 74 73 74 73 77 79 81 81 79 79 80 83 86 86 92 95 95 97 97 96 96 97 96 93 98 93 88 92 92 97 98 92 96
67 69 73 76 82 83 84 85 85 85 85 86 85 83 82 83 82 81 82 81 84 90 92 94 96 97 97 98 98 98 98 97 97 95 96 93 95 96 94 94 99 97 97
76 84 87 91 94 95 96 96 96 97 96 93 87 82 78 74 72 69 68 73 79 84 89 94 96 97 97 98 98 98 98 98 98 98 98 97 99 98 96 98 99 99 92
85 89 93 95 95 96 97 96 92 87 79 76 65 57 51 45 42 42 47 47 49 52 54 61 73 84 92 95 96 97 97 97 98 98 98 98 97 98 97 98 98 98 92
93 93 93 93 94 94 88 83 76 67 58 51 46 39 35 35 36 35 34 30 27 28 35 37 37 40 51 65 81 91 95 95 96 96 97 97 98 97 98 98 99 98 95
93 93 90 86 82 75 67 60 52 47 40 32 26 23 20 19 17 16 16 15 17 21 20 20 27 30 31 32 40 53 65 83 90 93 95 97 96 97 98 97 98 99 99
88 79 70 66 60 53 47 34 28 25 20 19 19 19 20 21 22 21 20 20 18 18 19 21 21 21 26 25 25 28 36 45 55 68 83 89 90 94 96 96 97 97 98
73 65 59 48 34 25 20 19 19 19 20 21 23 25 26 26 26 25 26 24 21 18 22 22 21 20 21 22 22 17 21 28 36 40 46 56 71 82 89 93 95 96 96
61 43 28 22 19 20 21 22 21 22 26 27 26 26 26 26 24 23 22 24 22 20 18 20 21 20 20 18 18 16 15 15 17 21 29 36 45 56 67 77 85 93 96

GFSMW_prec_cthk_117.txt.gz
RH
24 30 39 46 48 50 47 41 40 39 38 38 39 38 39 36 38 35 35 38 43 46 51 58 67 71 73 77 84 84 80 79 99 90 79 82 85 79 81 77 72 69 61
34 34 40 52 66 60 56 53 49 46 44 41 43 47 45 39 35 35 34 32 31 31 31 36 43 48 51 54 63 70 73 75 75 80 92 97 93 84 86 94 90 83 71
47 46 50 63 82 79 71 64 59 56 53 50 50 47 46 43 37 35 33 32 30 28 27 27 27 31 38 41 42 46 52 56 61 68 81 86 87 88 83 83 91 95 81
65 66 64 63 75 84 78 71 63 56 52 53 52 50 46 32 33 32 29 28 28 28 27 26 24 22 22 23 29 35 37 39 46 48 59 67 71 73 76 72 74 91 80
80 87 86 77 70 81 84 74 67 59 55 51 50 48 47 36 30 28 27 25 25 27 28 28 25 23 21 19 17 19 25 26 27 35 40 46 53 62 67 68 70 80 78
89 95 93 86 77 76 78 75 68 62 55 56 56 58 42 44 32 27 26 23 22 23 27 31 32 31 28 27 25 24 24 30 32 30 34 44 47 51 54 59 61 63 68
93 97 97 88 91 89 81 71 69 65 61 56 54 52 49 39 40 36 28 26 22 23 25 31 34 35 35 34 33 31 29 32 37 39 37 38 42 53 56 56 53 55 62
98 97 95 91 85 84 79 73 74 70 65 58 50 43 42 39 45 37 36 33 32 29 27 29 35 38 36 36 37 35 32 31 36 41 44 48 56 56 59 55 64 68 74
97 98 96 98 94 88 81 72 71 67 59 53 48 47 47 46 46 45 40 38 41 41 35 31 32 36 39 41 40 39 36 37 37 39 46 53 63 65 68 70 68 74 85
92 89 89 86 89 87 75 69 67 62 54 55 52 46 47 49 47 51 51 41 39 37 38 35 29 34 38 40 41 39 38 38 38 42 51 59 66 67 71 71 80 79 83
91 91 87 87 79 71 79 82 76 66 64 55 50 49 42 41 39 39 43 52 44 39 36 35 35 36 36 36 42 42 43 43 45 54 60 59 62 70 79 84 83 88 87
75 74 75 72 71 68 56 55 51 50 51 50 49 46 42 42 40 41 42 42 45 44 40 39 39 37 37 39 42 45 47 50 57 67 73 61 84 90 88 77 86 86 87
68 63 62 65 63 62 57 53 53 55 53 51 49 48 46 45 45 46 46 46 44 42 43 43 42 41 40 42 46 48 50 56 64 76 86 87 90 93 90 87 86 90 92
64 56 54 52 49 47 54 56 58 61 61 56 54 53 53 52 49 49 51 52 50 52 51 48 47 45 47 48 50 53 57 66 74 86 97 91 92 89 85 83 87 92 90
61 54 48 48 51 58 60 61 62 61 58 56 61 63 62 60 59 59 58 59 59 57 56 55 54 53 53 54 56 61 67 75 82 84 92 97 90 79 72 81 88 93 92
61 54 53 58 61 63 63 63 66 66 66 68 68 70 66 65 69 67 67 67 66 63 61 60 59 59 58 58 63 70 80 84 89 91 93 93 87 85 89 98 90 89 86
57 56 61 66 66 70 72 73 72 72 70 72 73 73 72 72 71 68 70 71 71 70 68 67 66 64 63 65 66 81 90 95 98 98 97 96 92 95 98 93 90 93 93
57 63 69 68 72 75 81 80 77 77 78 79 77 74 74 71 70 68 67 67 68 67 71 72 69 69 68 71 74 88 96 98 98 99 99 98 99 98 96 93 85 86 90
64 68 68 73 76 81 83 84 86 86 86 83 81 78 75 70 65 58 53 50 49 50 52 57 66 74 77 78 83 94 98 98 98 99 99 99 98 99 97 98 88 94 96
72 73 76 80 86 89 91 94 96 95 89 79 71 63 55 45 38 33 32 33 37 41 46 46 47 51 65 77 88 93 96 97 97 98 97 99 98 98 94 92 93 96 98
77 78 82 87 89 91 92 85 82 79 74 58 47 40 31 29 30 33 36 35 35 33 30 30 35 37 41 47 58 77 88 91 96 97 98 97 98 98 98 98 96 98 98
83 87 88 91 92 89 85 78 66 51 43 41 35 34 31 23 17 14 14 14 16 15 21 26 25 26 28 29 31 43 58 66 79 88 94 96 96 97 98 98 98 98 99
88 90 89 85 81 73 61 51 50 44 33 24 19 19 18 18 18 17 17 15 15 18 18 17 17 18 20 20 24 25 27 37 50 60 69 85 93 95 95 96 97 98 98
86 83 81 75 63 52 48 32 30 26 22 21 22 22 22 23 24 23 21 18 16 17 21 16 14 13 12 15 14 12 14 18 23 31 44 56 66 74 87 93 95 95 97
78 70 64 52 42 35 22 20 21 22 23 23 24 25 26 25 24 23 21 19 19 19 21 22 18 16 14 18 18 15 10 11 13 14 18 26 35 46 61 72 85 94 95
66 59 45 27 22 21 21 22 22 23 23 24 25 25 24 23 22 21 21 21 21 19 18 21 19 15 15 10 8 9 9 9 9 8 10 12 16 23 31 41 55 68 78

GFSMW_prec_cthk_120.txt.gz
RH
31 31 31 31 32 34 36 42 43 48 48 49 44 42 41 39 36 36 37 38 36 40 43 50 59 65 69 76 83 87 92 95 96 97 91 89 83 78 79 83 85 81 81
38 39 40 41 41 40 45 46 49 54 52 52 53 49 45 42 45 42 39 37 35 35 37 37 37 40 45 54 61 68 76 80 82 85 96 93 78 73 72 78 79 85 90
46 45 47 49 51 50 50 52 55 62 65 66 65 60 57 54 50 52 49 39 38 39 37 36 35 34 33 32 35 44 51 54 55 64 76 79 76 82 84 80 76 76 77
54 54 55 56 59 60 63 67 61 67 79 71 68 62 56 54 51 50 46 38 37 39 38 36 35 34 32 29 30 30 33 41 47 47 47 55 61 65 65 60 64 67 62
60 62 65 70 70 73 73 72 76 77 79 74 72 65 58 54 55 53 50 39 37 33 38 35 34 33 32 30 28 26 27 26 29 34 38 36 38 47 51 50 51 52 49
66 69 74 83 91 92 81 84 78 85 83 81 72 68 65 62 58 55 53 42 42 34 30 35 34 32 33 32 32 30 27 26 24 24 31 33 33 30 35 41 42 40 41
68 75 81 90 96 98 91 80 81 83 79 79 72 70 67 62 55 50 51 46 39 44 30 30 31 31 32 32 33 32 31 30 31 29 30 33 36 39 36 37 40 43 44
74 81 88 90 93 94 94 87 83 85 84 79 76 75 69 59 51 46 42 42 43 42 44 30 30 30 29 30 34 33 33 34 33 33 33 36 38 42 45 50 47 49 48
83 87 91 89 93 88 88 87 81 81 75 71 66 70 65 58 51 44 44 41 46 46 45 52 43 34 34 34 33 37 40 40 38 40 38 35 36 39 44 50 54 58 61
86 85 84 83 80 81 80 78 84 81 79 68 64 63 62 62 52 46 40 43 39 41 52 48 45 43 45 46 42 41 42 46 44 44 39 35 36 40 43 49 54 65 67
78 69 64 63 68 70 66 72 68 69 77 83 77 72 67 60 57 48 44 41 40 42 45 53 48 43 40 39 41 45 39 40 40 44 44 41 43 46 50 60 63 70 77
75 68 61 55 54 53 58 66 74 65 60 62 60 59 57 56 52 48 47 45 45 43 43 45 50 55 51 43 41 40 41 42 43 46 48 47 51 54 59 66 67 71 74
74 68 59 53 48 47 50 56 62 69 71 61 60 58 58 57 54 54 52 50 50 49 47 47 48 47 46 45 44 42 40 44 44 49 50 52 57 61 65 75 80 85 91
79 70 60 54 49 50 52 53 53 57 58 64 66 63 62 61 61 62 60 56 54 54 53 52 53 53 53 51 45 46 46 47 50 54 57 59 61 67 79 87 92 94 98
79 67 59 50 51 55 57 61 62 61 63 64 69 68 69 70 71 75 71 67 66 62 57 57 58 58 56 53 51 50 53 56 59 61 62 63 66 74 85 97 94 94 93
75 64 54 54 59 61 62 66 69 71 69 68 65 64 67 70 70 70 69 70 70 68 63 62 59 59 58 58 57 57 60 61 61 64 66 70 73 80 83 89 99 98 88
67 58 55 58 62 61 65 68 75 74 73 73 75 74 73 70 67 63 60 57 56 54 55 59 60 61 62 64 64 66 66 66 65 69 73 80 86 89 91 93 97 98 89
59 55 59 65 66 70 74 79 82 82 83 80 75 72 69 64 57 50 44 39 38 40 41 40 45 51 58 62 65 69 70 71 70 73 80 89 96 95 94 97 99 99 97
58 64 69 73 76 81 86 91 92 93 88 82 76 73 62 51 44 37 29 30 33 34 29 29 30 32 36 42 56 68 72 70 73 79 86 92 96 97 98 97 99 99 97
64 69 77 79 84 92 95 97 94 84 74 64 53 48 41 36 30 28 30 35 31 31 29 27 26 29 33 35 37 41 50 65 72 82 89 93 95 97 97 98 98 98 98
74 77 84 86 92 94 89 84 82 73 63 50 40 31 27 29 32 22 16 15 17 15 16 21 23 23 25 27 27 30 33 40 48 64 81 89 95 96 97 97 98 98 98
82 86 89 94 96 91 85 66 50 46 49 45 46 39 23 18 17 16 15 14 13 13 16 15 12 12 13 14 15 20 21 24 29 40 46 57 75 91 94 97 97 97 97
86 89 93 91 83 73 54 46 57 43 34 30 24 22 21 20 19 17 16 14 14 13 12 11 11 10 9 9 9 10 13 15 17 21 26 33 41 50 67 85 94 96 96
88 89 85 77 66 63 44 39 41 34 30 24 23 23 21 21 20 19 18 17 18 17 15 13 13 11 9 8 7 7 6 6 6 8 10 13 19 24 32 47 64 83 93
83 82 74 56 43 43 34 28 26 25 23 23 22 21 23 24 23 22 21 20 21 22 22 20 15 14 11 12 8 7 6 6 6 6 5 5 5 7 12 19 29 43 63
74 68 57 43 33 30 24 25 23 23 23 21 21 24 24 24 22 21 20 20 19 21 22 20 19 15 18 16 8 8 7 7 6 6 5 6 6 8 9 9 11 18 29

GFSMW_prec_cthk_123.txt.gz
RH
36 34 33 33 34 34 35 36 37 41 44 45 45 48 49 50 49 43 39 35 32 35 37 37 37 40 48 63 75 81 88 90 93 96 93 90 91 89 84 79 78 76 75
41 40 39 38 38 38 38 40 40 43 45 48 52 57 56 56 50 45 42 41 40 37 37 37 35 33 34 39 44 53 66 77 86 89 86 95 95 90 74 78 69 71 72
46 46 45 44 43 44 44 44 46 46 47 52 53 57 64 63 59 60 50 46 45 43 40 36 35 36 35 37 39 38 39 45 57 63 65 69 68 67 62 64 62 68 66
50 50 50 50 50 48 51 50 52 53 58 57 57 56 61 59 68 62 56 52 53 51 44 37 34 39 41 39 39 39 38 36 38 47 54 55 54 55 53 51 51 56 55
54 52 54 54 56 57 59 60 67 66 66 69 69 70 64 65 69 67 61 57 59 57 55 44 35 35 41 42 40 40 41 40 37 34 39 43 45 44 49 51 46 42 41
57 58 58 59 60 63 65 74 81 85 76 76 85 83 86 84 69 67 62 64 60 56 59 55 41 41 38 42 44 41 41 41 40 34 30 32 37 34 31 34 42 39 39
63 62 62 63 64 65 66 74 81 93 89 82 79 82 85 84 80 76 72 60 56 48 49 48 42 44 44 37 39 44 38 38 39 38 34 32 28 32 31 32 33 40 36
67 65 64 65 64 69 69 72 76 79 77 83 88 92 92 85 83 75 68 63 52 48 43 45 45 44 47 44 38 37 40 35 38 36 37 36 33 33 36 38 46 51 47
72 69 66 58 57 60 59 61 69 77 78 82 78 74 71 68 66 71 65 59 54 48 44 41 43 48 50 46 47 44 37 35 38 40 40 39 37 38 38 42 44 50 53
75 68 61 57 54 51 52 55 63 62 68 76 80 82 77 72 66 63 68 69 59 49 40 40 41 43 50 53 52 49 45 43 42 41 41 42 42 43 45 48 51 47 46
73 67 62 57 54 51 47 47 51 63 70 68 64 70 80 77 75 73 74 66 61 52 47 41 42 44 47 52 56 55 52 53 50 49 47 50 47 45 48 49 46 47 50
75 68 64 62 58 52 46 47 49 52 57 76 75 70 69 69 67 69 68 62 58 55 52 49 48 48 49 49 57 59 57 50 48 51 53 58 57 46 49 51 47 49 51
79 74 71 66 59 54 50 53 56 56 58 57 64 79 81 72 66 65 65 64 63 61 58 54 53 51 52 54 54 55 60 63 56 53 51 51 52 50 48 48 54 55 56
83 79 77 69 61 54 53 55 58 61 63 62 61 62 69 74 71 72 71 70 69 67 64 57 56 59 59 59 58 57 59 58 57 56 55 55 54 53 54 57 60 62 69
86 85 80 69 59 53 56 59 61 64 67 69 67 65 64 64 62 65 65 66 68 66 65 63 61 60 60 62 64 64 63 60 60 60 60 60 61 60 61 65 67 70 70
89 86 78 64 55 56 61 60 65 68 69 71 71 71 73 71 63 59 54 53 51 47 46 50 57 60 60 63 63 63 65 63 63 62 62 61 59 61 67 71 74 74 81
90 86 72 60 59 63 61 64 69 74 74 71 68 64 63 61 58 52 44 38 34 32 30 28 31 35 45 52 60 65 62 62 62 62 61 60 61 65 69 73 78 80 79
89 80 64 61 64 66 70 77 82 83 81 75 73 67 60 52 44 43 39 33 29 26 25 27 27 27 28 28 30 37 50 56 61 61 62 65 67 69 73 80 84 84 90
78 68 60 63 70 74 81 87 90 88 84 77 72 56 48 46 44 30 25 28 30 31 28 23 24 25 26 27 26 26 27 28 36 51 61 66 69 71 76 83 86 93 96
63 58 65 70 77 81 89 90 84 75 62 49 42 42 45 35 29 34 33 29 25 19 17 17 21 21 19 19 19 19 20 21 24 29 35 44 59 70 78 84 91 97 97
59 70 78 79 84 85 85 82 79 65 54 49 41 32 35 41 33 19 15 14 15 17 15 18 18 13 14 15 16 16 17 20 21 20 22 27 38 46 61 76 90 94 97
74 82 82 86 90 90 81 68 48 47 45 46 44 34 21 19 18 17 16 16 15 14 13 12 11 11 10 9 8 7 7 6 7 9 10 12 17 23 31 44 61 81 90
85 85 87 91 91 82 53 41 51 39 36 33 29 23 22 20 19 18 17 18 18 17 16 16 15 13 10 8 7 6 6 5 5 5 5 5 6 8 10 19 26 40 55
87 85 90 88 74 58 47 41 41 38 29 26 24 23 22 21 21 22 25 29 28 27 26 25 23 21 14 10 8 7 6 6 5 5 5 5 5 4 5 5 11 18 25
86 90 84 71 63 43 41 35 30 25 24 24 23 23 24 24 25 25 30 29 28 27 26 24 23 21 18 17 9 8 7 6 6 6 5 5 5 4 5 5 5 6 9
88 85 73 48 44 38 29 26 24 24 23 22 23 25 26 26 26 26 23 21 21 26 25 23 22 21 20 15 9 9 8 8 7 6 6 6 7 7 7 6 6 6 7

GFSMW_prec_cthk_126.txt.gz
RH
37 37 37 38 38 37 38 39 39 39 40 37 40 45 50 54 53 51 50 49 46 40 37 37 37 36 36 40 44 48 57 67 77 88 86 92 89 91 88 89 88 86 80
39 40 39 39 39 38 38 37 36 37 38 42 47 45 48 51 54 57 57 55 52 46 42 39 37 36 36 34 31 34 42 47 57 72 82 83 83 80 93 74 70 71 76
41 40 39 41 42 41 40 39 38 39 42 45 46 53 50 51 53 55 58 61 58 54 49 44 42 42 41 36 34 33 32 40 43 51 63 69 68 67 64 58 58 61 63
41 43 43 45 48 46 45 46 46 48 47 48 49 51 50 63 52 56 58 61 61 58 50 50 49 49 45 39 36 36 35 35 37 44 45 56 62 63 58 55 50 51 57
47 46 47 48 49 50 51 52 56 54 54 59 63 62 63 68 74 62 62 62 55 57 60 60 61 60 54 48 41 37 38 39 39 42 46 47 52 60 65 60 63 63 47
50 50 51 53 54 54 54 54 57 59 62 65 75 78 76 70 76 74 74 70 70 68 66 62 64 59 56 55 47 48 43 42 48 50 48 47 49 50 55 61 55 48 46
53 53 54 56 54 52 52 54 56 58 62 67 75 81 84 82 83 83 91 89 83 79 77 69 56 52 45 46 50 48 45 42 44 50 52 52 51 49 44 44 51 47 43
58 58 57 53 51 47 44 45 47 54 58 65 67 67 66 71 80 85 87 90 92 90 79 59 53 42 43 49 52 52 50 46 44 40 51 48 48 50 46 44 45 48 44
62 59 55 50 47 47 45 41 40 41 48 57 68 69 73 78 79 79 70 69 88 89 67 55 55 53 46 42 43 47 52 53 51 48 43 50 49 45 47 46 47 49 49
64 62 55 53 52 51 47 43 42 42 44 49 55 57 68 73 77 82 75 74 73 75 69 68 61 47 44 40 42 45 47 56 55 51 45 43 49 50 45 45 49 48 50
71 66 59 56 54 53 50 47 44 46 48 49 50 65 68 60 63 77 80 79 81 81 81 75 65 59 50 49 47 46 49 57 59 58 51 46 46 47 46 46 51 49 50
76 71 66 61 58 56 53 51 49 50 51 53 52 53 66 75 75 74 80 77 77 81 79 69 62 56 52 52 52 51 52 54 60 60 61 59 54 55 52 54 58 54 54
82 78 73 68 65 62 59 55 53 53 55 57 58 59 60 65 84 85 83 82 83 79 71 65 63 63 60 58 57 56 57 58 59 64 66 70 66 60 63 64 65 65 64
87 81 77 74 74 69 64 55 56 57 58 59 61 61 61 62 60 68 76 74 73 69 67 66 63 62 61 58 59 61 63 63 64 64 63 64 69 69 64 58 60 60 57
87 83 83 82 79 72 62 57 57 59 61 64 68 68 66 63 60 60 58 58 56 55 54 54 55 54 51 54 59 62 64 63 64 64 66 67 66 64 62 64 59 58 60
89 90 89 86 80 71 61 59 63 64 62 64 65 65 63 59 57 54 49 47 44 40 38 36 35 34 30 32 35 45 55 62 65 67 68 69 68 67 65 62 61 60 61
96 95 91 89 81 68 61 65 64 65 66 66 64 61 57 54 52 46 40 35 31 28 26 25 27 25 25 24 24 24 27 33 40 51 62 68 70 67 69 68 65 65 64
95 94 90 89 75 64 65 65 71 78 76 71 66 60 56 48 42 39 39 36 30 27 25 22 22 20 21 24 22 22 23 23 24 25 30 40 57 63 68 69 71 72 72
96 95 92 80 64 60 67 73 77 81 78 70 61 52 48 49 46 36 32 26 32 31 27 26 24 24 21 19 19 18 20 22 22 21 21 22 31 34 50 59 67 71 73
97 93 79 60 60 69 73 79 79 75 63 51 44 47 44 36 32 34 35 29 26 21 18 15 16 20 18 16 18 16 14 13 15 18 19 18 18 21 23 28 31 57 65
89 80 63 59 73 76 80 78 76 58 50 48 38 35 36 44 40 27 21 18 17 17 19 21 15 13 12 13 10 8 7 6 6 6 6 7 8 9 13 18 21 27 36
75 63 64 75 82 82 79 76 65 52 44 47 45 41 29 26 23 22 24 23 24 24 26 25 24 22 13 10 8 6 6 5 5 5 5 5 5 4 5 4 6 9 17
65 69 82 87 86 86 80 62 53 47 36 32 29 26 23 22 27 29 30 28 28 28 27 26 25 24 22 17 8 7 7 6 6 6 5 5 5 5 4 4 4 4 5
80 85 88 86 88 86 62 48 52 46 44 38 33 31 27 30 32 31 30 30 30 29 28 27 27 25 22 19 14 11 9 7 7 8 7 6 6 6 5 5 5 5 5
86 90 88 89 86 65 48 50 45 37 31 30 30 30 32 33 32 27 30 33 31 29 28 28 27 24 22 20 11 9 8 8 9 12 10 8 8 7 7 8 9 9 6
92 90 90 87 68 54 44 41 32 28 28 29 30 29 32 32 33 33 35 25 25 27 24 27 26 24 22 15 12 16 16 16 17 19 19 18 18 18 17 16 16 16 15

GFSMW_prec_cthk_129.txt.gz
RH
35 35 36 35 34 33 34 33 31 30 30 30 33 38 40 42 50 53 52 52 52 54 54 50 48 40 35 34 37 42 42 40 45 51 59 62 76 84 93 83 96 91 85
36 35 36 36 36 35 35 35 35 33 33 34 36 37 39 44 43 49 54 51 51 54 56 51 44 39 38 36 34 35 34 33 36 43 46 59 60 63 69 78 78 74 76
35 35 37 38 39 39 40 40 39 39 39 38 40 40 43 43 47 46 43 51 55 52 51 53 50 47 45 43 40 40 41 35 31 34 45 48 56 67 61 55 55 64 62
36 37 40 40 40 40 41 41 42 43 44 43 45 45 47 48 50 52 49 52 48 56 55 56 55 52 48 45 44 49 50 45 34 33 38 43 44 56 61 69 66 57 54
42 41 40 41 42 42 42 42 43 43 44 45 47 50 54 59 58 59 64 71 68 59 55 62 62 58 53 51 53 58 54 51 46 40 36 38 40 43 51 61 57 68 68
43 42 43 44 44 43 42 40 40 40 42 46 49 51 56 64 70 71 74 77 81 78 67 66 64 64 65 59 63 62 58 57 54 48 44 43 45 42 48 51 61 63 63
47 46 47 47 43 39 36 34 34 34 36 40 46 51 53 55 63 74 81 82 82 84 82 84 82 76 75 74 72 65 52 51 54 53 52 47 45 52 54 55 51 53 50
48 49 49 47 42 40 37 38 37 36 36 35 35 43 51 60 65 66 67 69 72 76 80 88 91 87 84 80 69 55 50 49 49 53 55 54 49 46 49 53 60 58 51
52 52 51 46 42 40 41 40 40 39 38 38 38 37 42 50 55 65 76 82 82 76 78 82 92 93 81 68 54 55 49 45 48 48 55 56 51 50 49 49 53 57 57
57 57 56 48 46 46 45 42 42 41 41 41 41 42 43 46 53 62 63 70 83 84 82 79 86 83 70 63 60 50 50 46 44 45 47 56 55 53 52 47 51 59 59
62 63 61 56 54 52 51 49 48 46 46 46 47 48 49 51 51 55 69 71 75 82 86 86 85 84 75 71 62 59 56 52 49 49 52 58 61 58 55 50 51 60 60
64 66 65 63 65 62 58 55 53 53 51 51 53 53 54 56 57 59 64 83 83 78 80 80 80 85 84 78 72 66 59 55 54 55 56 58 67 66 62 57 56 57 61
64 65 66 70 69 69 66 64 61 56 54 56 55 56 58 60 59 58 62 68 89 91 89 86 82 81 76 72 68 64 62 62 62 62 62 64 66 74 71 67 61 61 62
64 68 71 76 79 73 70 69 66 59 57 59 60 59 60 61 60 60 60 61 67 79 81 76 69 63 60 60 63 65 65 64 64 65 64 63 65 64 71 75 80 73 70
66 74 76 82 82 79 76 74 69 61 61 62 62 62 63 61 60 59 57 56 51 49 51 53 49 43 34 32 34 43 45 50 60 61 63 64 65 67 65 63 63 79 80
68 72 77 81 82 82 82 80 71 64 65 64 63 61 59 57 54 51 50 48 53 47 43 41 37 31 27 24 22 27 26 24 25 27 35 46 55 65 64 67 68 62 60
67 72 82 84 83 87 85 81 68 67 67 66 62 59 54 50 46 47 47 45 42 41 37 36 35 25 20 18 19 22 24 24 22 19 19 20 24 33 45 59 65 68 69
70 78 91 91 90 89 86 78 70 70 64 65 63 57 56 52 53 50 42 43 43 39 35 31 28 25 21 21 20 28 24 19 16 15 14 13 12 15 18 24 37 48 63
72 79 90 93 92 90 83 71 64 65 69 64 55 47 43 52 50 46 40 39 38 41 42 36 29 27 22 22 18 18 26 21 23 22 20 19 17 15 15 14 15 17 24
75 85 97 93 94 86 69 63 69 70 67 63 47 45 41 37 37 37 40 39 40 34 31 29 25 21 17 18 18 18 17 18 14 11 8 6 7 8 8 8 12 14 15
86 96 97 93 89 76 61 70 73 64 60 43 40 38 44 46 53 41 33 33 30 29 28 27 26 19 14 12 10 9 8 10 13 8 6 5 5 5 4 4 4 5 5
96 98 94 89 77 63 67 71 68 64 57 51 39 47 35 36 37 37 35 32 31 30 28 27 26 24 18 12 11 9 7 7 12 14 11 9 7 6 6 6 5 5 4
94 93 88 76 65 72 80 76 72 60 45 40 32 29 30 32 34 33 33 33 32 30 28 27 27 25 23 18 15 16 14 14 18 18 18 16 14 10 9 8 6 5 6
85 83 73 69 79 86 83 76 60 53 43 40 40 37 34 34 34 34 34 32 31 30 29 30 28 27 25 23 21 20 19 17 19 19 18 18 19 18 17 16 15 14 15
80 80 79 85 89 86 82 69 52 48 44 39 33 33 34 34 32 26 31 33 23 24 29 29 29 28 26 24 23 22 20 20 19 21 21 21 19 19 18 18 18 17 17
83 85 88 91 90 84 73 47 52 47 36 33 32 30 31 32 35 37 34 30 27 27 25 25 28 28 26 25 24 23 22 20 21 26 25 24 25 24 24 22 20 20 18

GFSMW_prec_cthk_132.txt.gz
RH
35 33 33 32 31 30 30 30 30 29 28 28 28 28 30 34 35 36 36 45 46 44 51 49 50 49 51 53 48 40 34 33 35 35 32 30 35 39 49 55 62 77 85
38 36 35 36 34 31 32 32 32 32 30 30 32 33 33 35 35 36 36 37 39 42 43 44 46 46 47 48 47 40 36 35 35 36 37 33 29 33 37 40 51 56 58
38 36 36 35 34 34 34 34 33 33 33 34 35 34 35 37 37 38 38 41 40 39 41 43 42 44 46 47 48 43 37 36 39 41 46 45 40 30 29 39 53 64 63
36 36 36 36 36 35 35 34 33 32 32 34 35 36 39 41 42 42 43 45 45 44 43 44 47 48 50 50 53 49 45 43 44 46 51 50 49 46 35 28 30 41 52
37 37 36 36 36 36 35 33 32 30 32 33 33 35 39 42 44 47 51 51 50 52 52 57 56 52 54 56 53 54 52 49 50 51 54 56 55 51 50 38 32 31 41
38 38 38 38 37 35 33 30 28 28 27 28 28 28 31 37 42 42 44 50 56 63 65 69 70 74 73 72 68 63 57 55 58 57 58 60 56 56 56 48 37 35 32
40 40 41 40 37 33 30 30 31 31 30 29 29 29 30 32 35 40 45 50 53 59 64 71 70 74 81 79 75 73 71 70 66 70 67 62 57 58 59 58 51 40 33
40 42 42 41 35 34 31 31 34 34 31 32 33 33 34 36 36 36 38 45 50 59 70 69 70 69 73 77 80 81 76 77 74 75 67 56 55 53 56 60 60 48 38
44 42 43 42 38 36 34 34 36 37 35 35 36 37 38 38 38 39 39 41 48 54 58 77 82 78 78 80 86 87 85 83 79 71 61 53 49 46 52 58 61 58 52
47 44 46 46 42 41 40 39 41 42 42 41 42 42 43 44 44 45 47 46 48 55 67 68 83 84 87 90 91 85 77 76 72 64 55 51 46 45 47 50 59 60 56
50 49 51 51 50 47 47 46 48 48 48 49 48 46 47 48 50 53 53 56 58 60 66 82 86 86 88 91 91 86 80 74 70 66 60 53 51 52 53 56 62 64 60
56 55 54 53 53 52 53 56 57 58 55 54 54 52 51 51 53 55 56 59 64 67 70 77 91 86 86 88 89 85 80 76 72 69 62 60 60 58 59 62 65 71 68
61 56 53 52 54 58 58 63 65 65 64 60 56 54 54 52 53 57 58 57 60 65 72 72 75 79 77 80 80 81 81 82 76 67 65 66 64 62 61 62 66 75 76
76 64 57 54 58 64 66 70 70 72 68 63 60 61 59 58 57 57 56 52 52 55 61 60 54 53 54 51 51 51 55 54 58 60 61 64 64 65 63 64 65 68 76
78 69 59 57 61 67 69 74 76 76 70 66 67 65 64 59 58 56 52 48 45 42 45 46 36 31 33 38 43 40 35 28 25 27 32 31 38 49 57 62 63 66 66
78 69 62 58 62 72 73 79 78 73 72 69 66 66 59 58 51 50 51 47 47 45 37 38 28 24 24 28 34 36 35 25 18 15 15 15 16 21 32 37 44 55 61
80 63 57 60 66 76 81 84 82 77 78 71 68 59 51 47 45 49 48 48 44 38 37 39 33 25 22 22 25 28 25 22 18 13 12 12 12 13 13 19 24 35 39
60 60 57 61 69 77 86 95 88 81 74 70 63 51 48 53 50 49 51 49 43 39 34 30 29 26 24 21 23 28 25 26 22 18 17 16 16 14 12 12 14 12 17
61 55 53 58 70 79 83 82 79 80 73 61 50 42 41 42 46 47 48 45 40 40 39 36 30 25 24 19 20 22 20 21 19 17 16 15 15 14 10 10 10 10 13
59 56 61 68 77 89 97 92 85 75 68 59 49 44 39 35 39 43 45 47 48 41 37 31 25 21 17 16 13 14 18 17 16 10 9 14 15 16 9 6 6 5 6
58 62 69 78 88 91 92 89 82 65 57 58 52 43 39 46 51 44 38 37 37 34 33 31 27 19 15 14 14 12 11 14 14 11 11 15 17 17 17 11 9 10 8
65 71 81 93 97 95 93 85 67 60 61 47 44 41 49 39 36 38 39 38 36 32 31 31 28 22 17 16 18 21 18 18 18 18 18 18 18 18 18 16 14 8 7
71 82 94 97 95 92 87 70 59 67 58 49 47 43 35 37 39 38 39 36 33 33 32 29 27 23 18 17 17 19 21 20 20 20 20 19 19 17 15 19 19 12 10
76 87 92 94 92 84 70 65 72 66 57 50 44 39 38 37 40 36 29 28 30 30 30 29 25 24 21 22 22 21 20 21 22 21 20 19 18 19 18 18 18 17 16
80 86 87 83 81 74 77 78 74 66 57 49 40 39 37 31 29 28 27 26 25 24 23 25 26 24 24 28 27 26 25 24 25 25 22 21 21 21 20 20 21 22 21
84 84 83 83 83 83 84 81 74 61 54 44 44 36 37 37 35 34 34 34 33 31 28 24 23 30 30 30 29 28 28 26 26 24 23 22 22 22 23 22 23 22 22

GFSMW_prec_cthk_135.txt.gz
RH
36 34 28 27 28 28 27 26 25 25 25 24 25 26 28 27 26 26 26 27 30 32 34 38 44 43 45 55 45 47 46 45 37 32 28 27 26 27 31 35 33 35 45
36 34 29 29 29 28 29 28 28 28 27 26 26 28 29 29 29 28 28 27 27 29 31 34 36 36 38 40 42 45 46 45 42 38 33 30 29 33 36 37 34 35 38
38 36 32 32 30 31 31 31 29 27 26 26 26 28 29 30 30 30 31 32 33 34 34 34 35 36 35 36 38 43 46 49 48 46 44 40 39 34 32 33 32 31 34
40 38 33 33 33 33 32 30 27 23 21 21 21 22 24 26 28 30 33 35 37 40 44 43 44 45 45 41 40 39 44 47 50 51 52 50 47 45 38 37 37 33 31
41 37 35 34 34 34 32 30 26 22 19 17 17 18 18 20 21 23 25 29 33 35 38 42 50 53 54 54 54 51 52 53 54 53 53 55 54 49 48 38 41 39 36
42 41 37 35 35 34 31 28 26 23 21 21 20 19 20 21 21 22 24 26 29 32 35 39 43 46 51 60 67 69 68 68 66 64 59 57 58 61 61 56 45 41 37
48 43 39 36 36 35 30 30 28 26 24 23 22 22 23 24 26 27 27 28 29 31 34 37 42 48 53 53 63 72 71 75 79 80 75 69 65 63 70 66 51 44 42
48 43 43 42 39 35 30 30 29 28 27 27 28 29 29 31 32 34 35 36 35 34 34 36 40 42 55 64 67 70 76 77 82 81 80 78 75 70 70 67 57 45 40
49 49 49 47 42 38 32 32 32 32 32 34 35 34 34 35 37 41 42 41 42 42 41 42 44 49 56 67 77 83 87 83 81 82 82 84 80 78 76 64 51 45 40
54 53 52 51 48 44 38 37 37 38 38 40 40 40 40 41 41 45 47 48 48 47 49 51 53 58 67 72 78 90 95 92 90 87 84 82 79 78 66 54 49 46 44
62 60 58 56 53 49 44 43 41 43 45 47 48 46 47 48 49 48 49 51 53 53 55 59 61 63 72 79 90 95 97 96 97 92 88 84 79 67 61 55 52 51 49
68 65 59 54 54 53 50 47 47 50 53 55 55 51 52 54 54 52 51 51 52 56 58 62 62 65 73 77 91 95 97 95 93 87 85 83 74 70 64 58 57 56 55
72 71 67 61 59 55 52 52 54 57 59 63 59 58 56 56 54 54 54 54 52 53 55 58 57 60 62 59 63 68 72 72 79 80 73 77 71 69 62 62 59 56 56
82 83 77 70 66 58 57 58 60 63 62 65 63 63 61 56 55 55 52 49 46 46 41 45 41 38 36 43 48 47 45 41 41 40 43 43 49 48 53 58 57 60 61
85 85 85 78 71 62 60 63 66 67 65 68 66 66 63 62 58 56 50 47 42 43 41 39 34 29 28 30 34 41 39 34 31 30 27 26 25 29 33 36 34 36 45
80 82 81 80 74 63 63 64 64 64 67 71 70 67 64 57 56 49 43 41 42 43 46 37 33 32 30 31 30 27 25 25 27 26 26 20 18 17 17 21 25 26 33
74 78 78 79 75 67 66 61 63 64 69 72 80 64 60 54 44 37 46 45 44 41 41 40 35 27 26 32 28 25 22 20 19 20 19 13 13 14 14 14 14 16 21
75 80 80 79 71 64 60 59 60 67 72 70 67 62 57 47 41 44 46 46 48 44 39 31 28 26 25 25 27 26 25 21 17 17 20 16 16 16 13 12 13 13 12
80 85 83 72 64 60 58 63 68 76 73 72 67 59 49 34 39 37 41 47 43 40 37 36 34 30 26 21 20 22 21 21 18 17 18 17 16 18 6 5 5 5 6
78 78 75 71 66 63 65 69 79 78 81 76 62 52 41 36 34 38 46 47 52 46 41 32 26 22 20 26 18 15 14 14 13 13 14 18 17 17 13 6 6 5 6
70 66 66 67 69 68 73 80 82 82 79 70 59 50 37 40 45 44 41 41 41 38 36 32 26 20 18 22 23 17 15 15 16 15 16 18 18 18 18 9 8 8 7
66 66 68 69 74 78 84 87 87 86 77 63 55 46 43 49 43 36 40 41 40 36 33 28 23 20 18 18 19 21 21 20 19 19 20 20 19 17 19 15 10 9 8
70 72 71 71 79 85 92 92 89 80 63 54 52 47 48 46 38 43 44 41 38 34 33 26 23 21 21 21 22 24 24 23 23 22 21 22 21 16 15 18 13 11 10
77 75 71 74 79 90 95 92 83 67 56 57 53 54 51 39 38 38 38 35 33 32 29 25 22 22 22 22 24 24 25 25 24 22 21 20 19 17 15 14 14 14 14
72 72 71 73 79 90 90 82 69 61 64 64 57 51 39 38 35 34 32 28 27 27 25 24 24 25 26 28 29 30 29 28 26 23 19 17 16 15 14 14 15 16 17
76 77 74 75 83 82 83 77 72 72 71 58 56 41 39 39 37 34 34 34 33 32 30 29 28 29 32 30 32 32 31 28 23 19 18 17 17 17 17 16 16 16 17

GFSMW_prec_cthk_138.txt.gz
RH
34 34 33 32 27 22 22 22 23 24 25 26 27 28 27 26 25 24 23 23 23 23 23 24 28 29 31 30 33 36 35 35 41 43 42 39 35 33 31 34 37 39 40
37 36 34 34 30 24 23 23 25 25 25 26 26 28 28 27 26 25 23 23 24 25 25 25 26 27 29 29 31 34 35 32 32 37 39 40 42 37 36 39 43 41 44
36 36 37 37 31 25 24 24 23 22 22 23 24 24 25 25 25 24 22 21 22 24 26 28 30 31 33 34 34 35 36 35 36 39 40 46 43 42 44 45 40 42 44
38 39 42 40 34 28 26 23 21 20 18 18 17 17 17 18 17 18 18 18 19 20 21 23 26 30 34 38 40 42 44 41 41 45 49 46 47 44 40 40 43 40 41
37 40 43 40 34 33 28 25 21 20 19 18 18 18 18 18 18 18 18 17 17 18 19 22 24 26 29 31 35 42 49 52 54 53 54 55 52 51 48 44 47 42 37
40 44 43 41 39 37 31 26 23 23 22 22 21 21 21 21 20 21 21 21 21 22 22 23 24 25 28 32 35 36 40 49 55 59 63 62 62 59 51 46 49 52 48
45 48 46 46 43 37 36 30 26 26 26 26 25 25 25 25 25 26 26 27 28 28 29 31 31 31 31 34 35 42 44 43 48 54 62 70 73 75 69 61 56 53 51
51 49 50 50 43 43 40 36 32 30 31 31 31 30 29 30 30 30 32 33 35 35 36 37 39 38 38 39 40 45 53 57 59 63 73 74 79 79 84 82 73 65 58
56 55 54 48 48 48 44 40 38 36 36 36 36 35 36 35 35 35 38 38 41 41 41 43 45 46 46 48 51 55 55 63 68 77 82 85 80 82 83 80 76 72 61
58 57 52 52 55 54 50 46 42 41 41 41 40 43 43 42 40 41 42 41 47 47 48 48 49 54 54 54 58 61 67 71 80 88 93 92 86 82 82 82 79 78 74
62 59 55 57 61 61 56 49 47 46 47 48 47 49 50 47 45 45 43 43 48 48 51 52 51 57 60 61 63 68 73 81 88 95 95 95 97 94 90 85 82 80 66
64 60 61 63 67 66 59 52 51 49 50 53 56 56 54 51 50 48 45 42 48 46 44 47 51 56 59 58 55 56 64 74 86 90 96 97 97 94 92 85 81 70 65
68 67 66 68 70 67 68 60 54 53 58 61 61 59 54 53 51 48 48 44 46 40 41 39 41 46 51 48 44 41 35 45 50 49 52 65 72 78 81 78 70 68 67
74 70 74 79 80 78 78 68 61 62 62 63 63 63 57 54 51 50 45 42 44 41 40 35 33 36 38 34 29 35 41 36 38 38 36 36 38 40 43 48 47 45 49
89 89 89 86 82 82 85 79 70 67 68 69 66 62 57 54 53 53 43 44 43 40 43 40 35 37 37 32 29 27 30 29 35 33 34 33 31 28 30 32 34 31 28
85 90 90 85 84 84 89 84 73 72 69 66 63 59 54 54 53 50 42 42 39 40 42 44 40 39 40 37 26 27 23 21 22 28 29 24 22 22 23 22 22 22 20
87 91 86 86 86 87 94 84 72 70 66 61 61 60 54 51 49 45 42 39 39 38 39 43 44 37 34 32 26 23 19 16 16 17 20 23 22 20 19 16 14 11 10
66 76 85 89 92 92 91 83 72 69 67 66 64 58 53 54 49 45 42 39 40 40 39 37 32 30 29 27 25 24 21 20 19 16 16 16 16 12 14 13 11 9 9
72 80 82 88 92 89 89 84 76 73 70 66 64 57 52 55 42 42 36 37 37 34 33 35 40 37 32 24 21 19 18 17 16 21 25 22 21 16 7 6 6 6 6
72 78 86 92 93 87 87 80 77 76 73 68 68 58 56 46 41 37 42 49 47 43 39 34 30 27 27 24 20 20 18 16 15 16 16 20 19 17 7 6 6 6 6
68 72 79 85 83 79 74 74 76 77 76 73 64 62 56 45 42 42 52 49 40 37 36 32 27 26 23 27 26 21 19 16 15 15 15 16 16 17 8 7 7 8 7
71 77 76 78 74 74 75 76 80 81 79 71 68 62 53 47 44 54 42 39 40 42 37 29 24 22 22 25 29 28 26 21 17 17 17 15 12 11 11 9 9 9 9
74 72 73 72 77 76 80 80 82 83 81 74 66 58 55 52 49 49 41 45 45 42 35 30 27 26 26 26 27 30 26 24 21 19 18 16 14 14 13 12 12 11 10
77 77 77 84 84 84 82 82 87 86 87 74 61 56 52 53 52 43 46 46 44 38 32 29 28 28 28 30 31 30 28 25 23 22 20 19 17 15 14 12 11 11 11
81 79 79 83 86 86 83 86 87 85 79 64 62 60 57 54 50 41 41 40 39 34 28 27 28 28 28 33 33 32 29 25 24 22 19 17 15 15 15 14 14 14 14
76 85 87 88 89 87 86 87 86 81 70 67 67 65 57 50 35 33 34 37 36 32 29 28 29 31 34 35 35 35 29 24 22 21 20 21 21 21 21 20 20 19 18

GFSMW_prec_cthk_141.txt.gz
RH
34 35 36 34 33 31 27 25 21 21 22 22 23 24 24 23 23 23 22 22 22 21 21 20 20 20 20 20 21 23 24 24 24 22 21 24 27 38 43 42 40 38 35
33 35 35 35 36 32 29 28 22 22 23 23 24 23 23 22 21 19 18 18 18 18 19 20 22 22 22 22 22 22 22 23 26 27 27 26 27 33 42 43 46 50 45
31 35 36 37 39 36 33 29 24 24 22 21 21 20 20 21 20 18 16 15 15 15 15 16 17 18 20 23 25 25 26 27 30 33 35 38 36 35 37 45 49 55 60
36 37 36 38 40 38 36 32 28 25 21 19 19 20 20 19 17 16 16 16 16 16 16 16 16 17 18 20 21 22 25 29 34 39 43 43 43 44 41 41 49 51 55
37 38 39 40 42 40 37 35 31 27 22 21 21 20 19 19 19 20 20 20 20 20 20 19 19 20 20 20 22 25 28 28 30 33 42 49 51 51 50 47 52 49 49
38 42 43 44 46 42 41 38 34 30 27 26 24 23 22 22 23 23 24 24 24 25 25 26 26 27 27 27 28 29 32 32 34 35 38 43 50 57 60 56 55 61 58
41 42 43 46 48 44 45 41 36 34 34 33 31 29 28 28 27 27 28 29 29 29 30 31 32 33 33 34 36 37 38 39 38 40 46 48 50 52 55 61 63 65 64
41 44 49 52 49 49 47 44 38 38 39 38 37 35 35 33 33 34 35 35 35 36 37 37 36 37 39 40 42 48 48 49 47 48 50 55 59 61 64 67 71 72 79
47 51 55 57 53 52 50 46 42 44 44 44 43 40 38 38 39 39 40 41 41 41 41 40 39 41 42 44 49 53 58 56 54 55 58 64 69 72 77 82 88 83 83
51 56 60 61 59 54 53 48 49 50 50 48 46 44 44 43 42 45 44 43 42 42 41 39 39 42 46 46 50 53 62 62 62 65 68 71 78 85 93 94 93 90 88
60 63 67 68 63 58 59 56 57 55 55 52 52 49 46 48 48 47 45 43 41 39 37 35 36 42 42 47 49 49 51 50 53 63 72 82 91 96 97 97 97 93 88
62 65 70 71 67 66 63 64 60 61 58 57 54 52 55 53 54 50 47 43 41 35 30 28 27 31 38 39 39 41 40 36 31 40 48 56 74 87 96 97 97 97 94
68 69 72 76 72 66 68 68 68 68 63 59 58 59 61 63 54 48 47 42 38 33 29 28 29 33 36 31 34 31 34 36 30 35 46 43 46 52 58 66 82 83 88
75 77 79 80 74 72 71 74 77 81 70 66 68 68 64 60 53 49 45 40 35 31 30 32 36 36 32 32 32 30 25 26 38 41 39 40 37 43 39 37 44 41 34
82 80 83 86 84 85 87 91 88 83 78 77 74 68 64 56 52 48 39 35 32 32 35 33 35 37 34 34 33 33 27 26 25 28 36 34 33 35 40 31 30 29 25
79 81 82 84 95 95 92 90 91 88 88 80 72 68 63 55 54 44 36 28 33 36 33 32 30 37 36 38 34 28 26 22 20 20 23 26 25 21 24 26 29 22 19
76 75 76 76 80 86 91 93 92 96 88 77 76 68 68 59 51 41 35 35 36 35 32 31 34 38 36 33 28 26 22 20 18 20 18 16 15 24 20 20 18 17 16
72 72 74 77 85 89 88 89 98 98 88 81 75 74 71 60 48 38 35 34 35 34 33 33 29 30 36 33 30 30 30 27 23 25 20 16 10 9 9 9 9 8 8
70 70 72 76 79 89 95 98 94 97 94 81 76 75 67 57 46 38 34 36 34 36 29 30 34 37 32 32 29 26 22 22 22 21 24 23 17 10 9 7 7 7 6
68 72 69 75 78 88 93 93 91 96 86 81 76 72 63 56 46 39 39 35 41 45 37 35 32 32 35 34 31 27 22 20 18 16 16 22 21 17 7 7 7 7 7
60 67 69 70 73 78 85 90 94 85 80 81 79 71 63 54 48 46 42 40 49 45 34 28 30 32 35 36 32 26 23 22 20 17 15 14 19 15 9 8 8 8 8
64 66 70 71 76 79 82 86 81 84 84 84 81 70 58 53 54 50 47 49 50 38 35 33 31 29 29 33 33 31 25 24 21 19 18 16 15 14 13 13 12 12 11
64 68 72 79 80 80 81 85 82 82 83 86 75 66 62 58 57 54 50 53 43 41 37 31 29 29 30 30 33 30 28 26 24 22 20 19 18 17 16 15 14 13 12
66 70 78 81 78 78 81 86 89 90 88 80 74 67 62 59 58 57 53 53 42 43 40 35 31 32 34 33 32 29 27 24 22 20 18 17 16 16 15 15 15 15 15
68 75 74 75 80 81 86 89 90 92 91 86 78 69 66 59 60 58 55 50 45 44 38 35 33 34 36 36 34 28 25 23 22 21 20 19 19 18 18 18 18 18 18
71 70 72 72 75 83 87 90 94 96 95 89 78 70 65 65 64 58 57 49 43 39 38 37 37 37 40 38 35 29 23 23 23 23 22 22 22 21 21 20 19 19 19

GFSMW_prec_cthk_147.txt.gz
RH
25 26 27 28 30 31 33 36 35 33 35 34 30 27 25 23 21 19 17 16 15 15 15 14 14 14 13 12 11 11 11 12 12 12 13 15 16 17 19 22 26 27 31
28 29 31 33 36 36 38 38 36 35 37 35 32 30 27 22 19 18 17 16 15 15 14 14 14 13 13 12 12 12 12 12 11 12 14 19 18 20 22 26 30 33 36
31 33 34 39 40 39 40 39 36 35 37 36 34 32 28 24 21 19 18 18 17 17 17 17 16 16 16 16 16 15 15 14 14 16 18 23 25 22 26 29 32 36 40
36 38 39 40 40 42 42 39 37 36 38 36 34 32 31 27 24 23 22 21 21 21 20 20 19 19 19 20 20 19 19 18 19 21 23 26 26 27 26 27 35 36 39
33 36 36 37 39 42 42 40 39 39 39 36 33 31 32 31 29 29 29 28 28 27 26 24 24 24 24 24 24 23 23 23 24 26 26 26 27 29 31 31 29 35 45
35 37 39 40 41 42 43 40 41 42 40 36 34 33 35 35 34 34 34 34 34 33 31 30 30 30 30 30 29 28 27 27 28 29 29 30 32 35 35 34 36 39 49
36 36 38 40 41 42 44 47 46 44 41 37 35 36 39 40 38 39 39 39 38 36 34 33 33 32 32 30 29 28 27 27 28 29 30 33 37 42 47 48 47 49 52
41 41 41 43 45 47 49 49 47 45 41 38 37 40 44 45 44 45 45 43 42 40 38 36 36 35 30 27 26 26 25 25 26 27 30 35 38 46 50 55 59 59 61
47 46 47 48 50 53 55 56 54 51 45 43 42 47 49 50 50 51 50 48 46 44 40 38 36 33 28 23 22 22 22 25 26 28 29 31 35 39 48 53 63 66 67
55 55 55 55 57 60 61 62 59 55 53 50 49 51 53 55 58 55 54 53 50 44 40 38 35 29 24 22 20 19 18 19 20 23 25 30 28 35 42 50 63 67 72
59 58 60 63 65 66 66 66 66 61 60 56 54 57 60 63 62 58 59 56 51 46 42 38 32 27 24 21 19 19 18 16 16 16 19 27 29 37 40 50 61 58 77
59 61 62 63 66 69 71 71 71 70 67 62 60 66 63 64 63 64 63 59 53 48 43 37 30 26 24 22 20 19 15 17 17 19 17 20 28 31 35 47 61 50 68
67 68 70 70 71 74 76 76 78 76 72 68 69 66 64 65 67 67 66 61 55 48 42 33 28 24 23 23 20 17 16 15 19 19 19 19 18 26 39 38 52 44 49
70 71 71 73 75 77 81 83 81 81 74 75 68 70 73 70 76 76 70 63 53 46 40 32 29 25 23 21 19 18 18 20 21 21 22 22 20 24 29 35 35 48 33
74 78 79 80 82 83 86 86 84 83 78 77 81 78 82 81 78 73 70 64 55 41 39 33 26 23 21 20 21 19 20 20 24 28 24 19 16 17 24 28 35 39 40
83 85 86 86 88 91 92 92 87 86 93 83 83 87 85 83 82 81 76 61 52 41 34 30 25 24 21 22 20 21 20 23 26 27 25 20 19 20 18 23 28 27 28
86 88 92 93 95 94 96 95 96 94 89 91 94 97 95 94 92 87 74 61 51 42 36 30 28 23 22 20 21 23 23 28 30 27 24 21 19 19 15 19 18 18 23
96 94 95 98 97 98 98 97 97 98 96 96 98 98 96 92 87 81 70 60 48 42 37 30 26 21 23 22 25 25 24 26 25 24 19 18 16 13 17 21 16 18 12
97 97 97 98 98 98 98 98 99 97 95 98 98 98 96 93 89 77 66 57 49 42 34 29 27 23 24 27 27 27 25 26 26 24 19 15 12 11 11 13 18 16 11
90 94 96 98 98 98 99 99 99 98 98 98 98 98 94 93 85 71 61 52 47 38 32 29 29 29 29 30 30 29 26 27 26 24 21 18 16 15 13 12 11 12 11
87 90 91 92 93 95 94 97 98 97 98 98 98 96 96 95 85 67 61 54 48 44 39 31 32 33 35 29 29 30 27 25 23 23 22 20 20 20 20 19 17 15 14
76 80 81 86 89 92 94 93 92 92 98 97 98 95 91 86 74 67 60 54 49 44 39 35 38 42 37 35 31 30 27 25 24 24 24 23 21 20 19 19 18 18 17
54 67 75 83 86 89 92 94 93 96 91 97 98 94 88 82 72 65 59 55 54 47 42 40 43 43 40 42 40 30 28 28 26 24 23 22 21 21 20 19 18 18 17
50 60 68 75 84 92 95 95 97 99 97 90 94 90 84 81 76 67 61 60 56 49 41 41 46 39 41 43 42 37 33 30 27 25 24 24 24 22 22 22 22 21 21
53 64 73 80 86 89 96 97 97 94 96 98 97 95 90 87 79 70 66 67 62 53 46 46 46 40 40 44 45 39 33 30 28 28 28 26 23 22 23 24 24 24 25
57 67 78 82 84 88 88 91 92 96 94 91 92 91 89 88 82 79 77 75 65 57 54 50 50 45 44 45 39 36 35 33 32 31 28 25 24 23 23 24 25 27 27